Time,TemperatureF,DewpointF,PressureIn,WindDirection,WindDirectionDegrees,WindSpeedMPH,WindSpeedGustMPH,Humidity,HourlyPrecipIn,Conditions,Clouds,dailyrainin,SoftwareType,DateUTC
2013-06-11 00:00:00,62.1,62.1,29.92,South,170,3.6,5.8,100,0.12,RA,OVC,0.00,WeatherDisplay:10.37,2013-06-11 04:00:00,
2013-06-11 00:01:00,62.0,62.0,29.92,South,171,3.6,5.8,100,0.12,RA,OVC,0.00,WeatherDisplay:10.37,2013-06-11 04:01:00,
2013-06-11 00:03:00,61.9,61.9,29.92,South,176,4.2,6.9,100,0.13,RA,OVC,0.01,WeatherDisplay:10.37,2013-06-11 04:03:00,
2013-06-11 00:06:00,61.8,61.8,29.92,South,170,3.4,4.6,100,0.12,RA,OVC,0.01,WeatherDisplay:10.37,2013-06-11 04:06:00,
2013-06-11 00:08:00,61.7,61.7,29.91,South,174,4.0,5.8,100,0.13,RA,OVC,0.02,WeatherDisplay:10.37,2013-06-11 04:08:00,
2013-06-11 00:11:00,61.6,61.6,29.91,South,174,2.8,5.0,100,0.13,RA,OVC,0.02,WeatherDisplay:10.37,2013-06-11 04:11:00,
2013-06-11 00:13:00,61.6,61.6,29.91,South,174,1.9,3.5,100,0.14,RA,OVC,0.03,WeatherDisplay:10.37,2013-06-11 04:13:00,
2013-06-11 00:16:00,61.5,61.5,29.91,South,174,1.3,2.3,100,0.14,RA,OVC,0.03,WeatherDisplay:10.37,2013-06-11 04:16:00,
2013-06-11 00:17:00,61.5,61.5,29.91,South,174,2.2,3.0,100,0.14,RA,OVC,0.04,WeatherDisplay:10.37,2013-06-11 04:17:00,
2013-06-11 00:18:00,61.5,61.5,29.91,South,174,0.7,3.5,100,0.14,RA,OVC,0.04,WeatherDisplay:10.37,2013-06-11 04:18:00,
2013-06-11 00:19:00,61.5,61.5,29.91,South,174,0.3,1.2,100,0.14,RA,OVC,0.04,WeatherDisplay:10.37,2013-06-11 04:19:00,
2013-06-11 00:21:00,61.5,61.5,29.91,South,174,0.5,2.3,100,0.14,RA,OVC,0.04,WeatherDisplay:10.37,2013-06-11 04:21:00,
2013-06-11 00:22:00,61.4,61.4,29.90,South,174,1.4,3.0,100,0.14,RA,OVC,0.05,WeatherDisplay:10.37,2013-06-11 04:22:00,
2013-06-11 00:23:00,61.4,61.4,29.90,South,174,2.1,3.5,100,0.15,RA,OVC,0.05,WeatherDisplay:10.37,2013-06-11 04:23:00,
2013-06-11 00:24:00,61.4,61.4,29.90,South,174,0.7,2.3,100,0.15,RA,OVC,0.05,WeatherDisplay:10.37,2013-06-11 04:24:00,
2013-06-11 00:26:00,61.4,61.4,29.90,South,175,0.2,1.2,100,0.14,RA,OVC,0.05,WeatherDisplay:10.37,2013-06-11 04:26:00,
2013-06-11 00:27:00,61.4,61.4,29.90,South,175,0.3,1.2,100,0.14,RA,OVC,0.05,WeatherDisplay:10.37,2013-06-11 04:27:00,
2013-06-11 00:28:00,61.4,61.4,29.90,South,174,1.0,2.3,100,0.13,RA,OVC,0.05,WeatherDisplay:10.37,2013-06-11 04:28:00,
2013-06-11 00:29:00,61.4,61.4,29.90,South,174,1.1,2.3,100,0.13,RA,OVC,0.05,WeatherDisplay:10.37,2013-06-11 04:29:00,
2013-06-11 00:31:00,61.4,61.4,29.90,South,174,1.2,2.3,100,0.13,RA,OVC,0.06,WeatherDisplay:10.37,2013-06-11 04:31:00,
2013-06-11 00:32:00,61.4,61.4,29.90,South,174,1.2,2.3,100,0.13,RA,OVC,0.06,WeatherDisplay:10.37,2013-06-11 04:32:00,
2013-06-11 00:33:00,61.4,61.4,29.90,South,174,1.3,2.3,100,0.13,RA,OVC,0.06,WeatherDisplay:10.37,2013-06-11 04:33:00,
2013-06-11 00:35:00,61.4,61.4,29.90,South,175,1.6,2.3,100,0.13,RA,OVC,0.06,WeatherDisplay:10.37,2013-06-11 04:35:00,
2013-06-11 00:37:00,61.4,61.4,29.90,South,174,0.9,2.3,100,0.12,RA,OVC,0.06,WeatherDisplay:10.37,2013-06-11 04:37:00,
2013-06-11 00:38:00,61.4,61.4,29.90,South,174,1.7,3.5,100,0.12,RA,OVC,0.06,WeatherDisplay:10.37,2013-06-11 04:38:00,
2013-06-11 00:39:00,61.4,61.4,29.90,South,174,1.7,3.5,100,0.12,RA,OVC,0.06,WeatherDisplay:10.37,2013-06-11 04:39:00,
2013-06-11 00:40:00,61.4,61.4,29.90,South,174,1.0,3.0,100,0.00,RA,OVC,0.06,WeatherDisplay:10.37,2013-06-11 04:40:00,
2013-06-11 00:42:00,61.4,61.4,29.90,South,174,0.0,1.2,100,0.11,,OVC,0.06,WeatherDisplay:10.37,2013-06-11 04:42:00,
2013-06-11 00:43:00,61.4,61.4,29.90,South,174,0.0,1.2,100,0.11,,OVC,0.06,WeatherDisplay:10.37,2013-06-11 04:43:00,
2013-06-11 00:44:00,61.4,61.4,29.89,South,174,0.0,0.0,100,0.10,CLR,OVC,0.06,WeatherDisplay:10.37,2013-06-11 04:44:00,
2013-06-11 00:45:00,61.4,61.4,29.89,South,174,0.0,0.0,100,0.10,CLR,OVC,0.06,WeatherDisplay:10.37,2013-06-11 04:45:00,
2013-06-11 00:47:00,61.4,61.4,29.89,South,174,0.0,0.0,100,0.09,CLR,OVC,0.06,WeatherDisplay:10.37,2013-06-11 04:47:00,
2013-06-11 00:48:00,61.4,61.4,29.89,South,174,0.0,0.0,100,0.09,CLR,OVC,0.06,WeatherDisplay:10.37,2013-06-11 04:48:00,
2013-06-11 00:49:00,61.4,61.4,29.89,South,174,0.0,0.0,100,0.09,CLR,OVC,0.06,WeatherDisplay:10.37,2013-06-11 04:49:00,
2013-06-11 00:50:00,61.4,61.4,29.89,South,175,0.0,0.0,100,0.08,CLR,OVC,0.06,WeatherDisplay:10.37,2013-06-11 04:50:00,
2013-06-11 00:53:00,61.4,61.4,29.89,South,174,0.0,0.0,100,0.09,RA,OVC,0.07,WeatherDisplay:10.37,2013-06-11 04:53:00,
2013-06-11 00:55:00,61.4,61.4,29.88,South,174,0.0,0.0,100,0.08,RA,OVC,0.07,WeatherDisplay:10.37,2013-06-11 04:55:00,
2013-06-11 00:58:00,61.4,61.4,29.88,South,174,0.0,0.0,100,0.08,RA,OVC,0.08,WeatherDisplay:10.37,2013-06-11 04:58:00,
2013-06-11 01:00:00,61.4,61.4,29.88,South,174,0.6,2.0,100,0.08,RA,OVC,0.09,WeatherDisplay:10.37,2013-06-11 05:00:00,
2013-06-11 01:04:00,61.4,61.4,29.88,South,172,2.1,3.5,100,0.08,RA,OVC,0.09,WeatherDisplay:10.37,2013-06-11 05:04:00,
2013-06-11 01:05:00,61.4,61.4,29.88,SSE,155,2.7,3.5,100,0.08,RA,OVC,0.09,WeatherDisplay:10.37,2013-06-11 05:05:00,
2013-06-11 01:09:00,61.4,61.4,29.88,SSE,154,0.9,2.3,100,0.09,RA,OVC,0.11,WeatherDisplay:10.37,2013-06-11 05:09:00,
2013-06-11 01:10:00,61.4,61.4,29.87,SSE,154,1.0,2.3,100,0.10,RA,OVC,0.12,WeatherDisplay:10.37,2013-06-11 05:10:00,
2013-06-11 01:14:00,61.3,61.3,29.87,SSE,154,1.7,2.3,100,0.10,RA,OVC,0.13,WeatherDisplay:10.37,2013-06-11 05:14:00,
2013-06-11 01:15:00,61.3,61.3,29.87,SSE,154,1.4,2.3,100,0.10,RA,OVC,0.13,WeatherDisplay:10.37,2013-06-11 05:15:00,
2013-06-11 01:19:00,61.3,61.3,29.87,SSE,154,0.2,1.2,100,0.10,RA,OVC,0.14,WeatherDisplay:10.37,2013-06-11 05:19:00,
2013-06-11 01:20:00,61.3,61.3,29.87,SSE,154,0.4,1.2,100,0.10,RA,OVC,0.15,WeatherDisplay:10.37,2013-06-11 05:20:00,
2013-06-11 01:21:00,61.3,61.3,29.86,SSE,154,0.8,2.3,100,0.11,RA,OVC,0.15,WeatherDisplay:10.37,2013-06-11 05:21:00,
2013-06-11 01:24:00,61.3,61.3,29.86,SSE,154,1.5,2.3,100,0.11,RA,OVC,0.16,WeatherDisplay:10.37,2013-06-11 05:24:00,
2013-06-11 01:25:00,61.3,61.3,29.86,SSE,154,1.6,2.3,100,0.11,RA,OVC,0.16,WeatherDisplay:10.37,2013-06-11 05:25:00,
2013-06-11 01:27:00,61.3,61.3,29.86,SSE,153,2.0,4.0,100,0.12,RA,OVC,0.17,WeatherDisplay:10.37,2013-06-11 05:27:00,
2013-06-11 01:29:00,61.3,61.3,29.86,SE,144,1.7,3.5,100,0.12,RA,OVC,0.17,WeatherDisplay:10.37,2013-06-11 05:29:00,
2013-06-11 01:30:00,61.3,61.3,29.86,SE,138,2.0,3.5,100,0.12,RA,OVC,0.17,WeatherDisplay:10.37,2013-06-11 05:30:00,
2013-06-11 01:33:00,61.3,61.3,29.85,SE,136,2.1,3.5,100,0.11,RA,OVC,0.17,WeatherDisplay:10.37,2013-06-11 05:33:00,
2013-06-11 01:35:00,61.3,61.3,29.85,SE,134,1.2,3.5,100,0.11,RA,OVC,0.18,WeatherDisplay:10.37,2013-06-11 05:35:00,
2013-06-11 01:38:00,61.3,61.3,29.85,SE,134,2.0,3.5,100,0.12,RA,OVC,0.18,WeatherDisplay:10.37,2013-06-11 05:38:00,
2013-06-11 01:40:00,61.3,61.3,29.85,SE,135,1.0,3.0,100,0.00,RA,OVC,0.18,WeatherDisplay:10.37,2013-06-11 05:40:00,
2013-06-11 01:43:00,61.3,61.3,29.85,SE,134,2.1,3.5,100,0.12,RA,OVC,0.18,WeatherDisplay:10.37,2013-06-11 05:43:00,
2013-06-11 01:45:00,61.3,61.3,29.85,SE,134,2.1,3.5,100,0.12,,OVC,0.18,WeatherDisplay:10.37,2013-06-11 05:45:00,
2013-06-11 01:46:00,61.3,61.3,29.85,SE,134,1.8,3.5,100,0.12,,OVC,0.19,WeatherDisplay:10.37,2013-06-11 05:46:00,
2013-06-11 01:48:00,61.3,61.3,29.84,SE,134,1.8,3.5,100,0.13,RA,OVC,0.19,WeatherDisplay:10.37,2013-06-11 05:48:00,
2013-06-11 01:50:00,61.3,61.3,29.85,SE,134,2.2,3.5,100,0.14,RA,OVC,0.20,WeatherDisplay:10.37,2013-06-11 05:50:00,
2013-06-11 01:51:00,61.3,61.3,29.84,SE,131,2.3,3.5,100,0.14,RA,OVC,0.20,WeatherDisplay:10.37,2013-06-11 05:51:00,
2013-06-11 01:53:00,61.3,61.3,29.84,SE,130,2.0,3.5,100,0.13,RA,OVC,0.20,WeatherDisplay:10.37,2013-06-11 05:53:00,
2013-06-11 01:54:00,61.3,61.3,29.84,SE,130,1.8,3.5,100,0.13,RA,OVC,0.20,WeatherDisplay:10.37,2013-06-11 05:54:00,
2013-06-11 01:55:00,61.3,61.3,29.84,SE,130,2.0,3.5,100,0.13,RA,OVC,0.20,WeatherDisplay:10.37,2013-06-11 05:55:00,
2013-06-11 01:56:00,61.3,61.3,29.84,SE,131,1.7,3.5,100,0.12,RA,OVC,0.20,WeatherDisplay:10.37,2013-06-11 05:56:00,
2013-06-11 01:59:00,61.3,61.3,29.84,SE,130,2.2,3.5,100,0.12,RA,OVC,0.20,WeatherDisplay:10.37,2013-06-11 05:59:00,
2013-06-11 02:00:00,61.3,61.3,29.84,SE,129,3.1,3.5,100,0.12,RA,OVC,0.21,WeatherDisplay:10.37,2013-06-11 06:00:00,
2013-06-11 02:01:00,61.3,61.3,29.84,SE,129,3.0,3.5,100,0.12,RA,OVC,0.21,WeatherDisplay:10.37,2013-06-11 06:01:00,
2013-06-11 02:04:00,61.3,61.3,29.83,SE,124,3.1,4.0,100,0.12,RA,OVC,0.21,WeatherDisplay:10.37,2013-06-11 06:04:00,
2013-06-11 02:05:00,61.3,61.3,29.83,ESE,123,3.5,4.6,100,0.12,RA,OVC,0.21,WeatherDisplay:10.37,2013-06-11 06:05:00,
2013-06-11 02:06:00,61.3,61.3,29.83,ESE,122,3.2,4.0,100,0.11,RA,OVC,0.21,WeatherDisplay:10.37,2013-06-11 06:06:00,
2013-06-11 02:07:00,61.3,61.3,29.83,ESE,122,3.3,4.0,100,0.11,RA,OVC,0.21,WeatherDisplay:10.37,2013-06-11 06:07:00,
2013-06-11 02:09:00,61.3,61.3,29.83,ESE,121,3.1,4.0,100,0.10,RA,OVC,0.21,WeatherDisplay:10.37,2013-06-11 06:09:00,
2013-06-11 02:11:00,61.3,61.3,29.83,ESE,121,2.9,4.0,100,0.10,RA,OVC,0.22,WeatherDisplay:10.37,2013-06-11 06:11:00,
2013-06-11 02:12:00,61.3,61.3,29.83,ESE,119,3.5,3.5,100,0.10,RA,OVC,0.22,WeatherDisplay:10.37,2013-06-11 06:12:00,
2013-06-11 02:14:00,61.3,61.3,29.83,ESE,119,2.5,3.5,100,0.09,RA,OVC,0.22,WeatherDisplay:10.37,2013-06-11 06:14:00,
2013-06-11 02:15:00,61.3,61.3,29.83,ESE,119,2.4,3.5,100,0.09,RA,OVC,0.22,WeatherDisplay:10.37,2013-06-11 06:15:00,
2013-06-11 02:16:00,61.3,61.3,29.83,ESE,119,1.7,2.3,100,0.08,RA,OVC,0.22,WeatherDisplay:10.37,2013-06-11 06:16:00,
2013-06-11 02:17:00,61.3,61.3,29.82,ESE,119,1.0,3.0,100,0.08,RA,OVC,0.22,WeatherDisplay:10.37,2013-06-11 06:17:00,
2013-06-11 02:20:00,61.3,61.3,29.83,ESE,119,1.0,3.0,100,0.00,RA,OVC,0.22,WeatherDisplay:10.37,2013-06-11 06:20:00,
2013-06-11 02:21:00,61.3,61.3,29.83,ESE,119,1.6,2.3,100,0.07,,OVC,0.22,WeatherDisplay:10.37,2013-06-11 06:21:00,
2013-06-11 02:22:00,61.3,61.3,29.83,ESE,119,1.7,2.3,100,0.06,,OVC,0.22,WeatherDisplay:10.37,2013-06-11 06:22:00,
2013-06-11 02:23:00,61.3,61.3,29.83,ESE,119,1.6,3.5,100,0.06,CLR,OVC,0.22,WeatherDisplay:10.37,2013-06-11 06:23:00,
2013-06-11 02:25:00,61.3,61.3,29.83,ESE,119,1.4,2.3,100,0.06,CLR,OVC,0.22,WeatherDisplay:10.37,2013-06-11 06:25:00,
2013-06-11 02:26:00,61.2,61.2,29.83,ESE,119,1.0,2.3,100,0.05,CLR,OVC,0.23,WeatherDisplay:10.37,2013-06-11 06:26:00,
2013-06-11 02:27:00,61.2,61.2,29.82,ESE,119,1.4,2.3,100,0.06,RA,OVC,0.23,WeatherDisplay:10.37,2013-06-11 06:27:00,
2013-06-11 02:28:00,61.2,61.2,29.82,ESE,119,1.6,2.3,100,0.06,RA,OVC,0.23,WeatherDisplay:10.37,2013-06-11 06:28:00,
2013-06-11 02:30:00,61.2,61.2,29.82,ESE,119,0.9,2.3,100,0.07,RA,OVC,0.24,WeatherDisplay:10.37,2013-06-11 06:30:00,
2013-06-11 02:32:00,61.2,61.2,29.82,ESE,119,1.1,2.3,100,0.07,RA,OVC,0.24,WeatherDisplay:10.37,2013-06-11 06:32:00,
2013-06-11 02:33:00,61.2,61.2,29.82,ESE,119,1.1,2.3,100,0.08,RA,OVC,0.25,WeatherDisplay:10.37,2013-06-11 06:33:00,
2013-06-11 02:35:00,61.2,61.2,29.82,ESE,119,1.3,2.3,100,0.08,RA,OVC,0.26,WeatherDisplay:10.37,2013-06-11 06:35:00,
2013-06-11 02:36:00,61.2,61.2,29.82,ESE,119,1.2,2.3,100,0.08,RA,OVC,0.26,WeatherDisplay:10.37,2013-06-11 06:36:00,
2013-06-11 02:37:00,61.2,61.2,29.82,ESE,119,0.8,2.3,100,0.09,RA,OVC,0.27,WeatherDisplay:10.37,2013-06-11 06:37:00,
2013-06-11 02:38:00,61.2,61.2,29.82,ESE,119,0.6,1.2,100,0.09,RA,OVC,0.27,WeatherDisplay:10.37,2013-06-11 06:38:00,
2013-06-11 02:40:00,61.2,61.2,29.82,ESE,119,0.7,1.2,100,0.10,RA,OVC,0.28,WeatherDisplay:10.37,2013-06-11 06:40:00,
2013-06-11 02:41:00,61.2,61.2,29.82,ESE,119,1.0,2.3,100,0.10,RA,OVC,0.29,WeatherDisplay:10.37,2013-06-11 06:41:00,
2013-06-11 02:42:00,61.2,61.2,29.82,ESE,119,0.6,2.3,100,0.11,RA,OVC,0.29,WeatherDisplay:10.37,2013-06-11 06:42:00,
2013-06-11 02:43:00,61.2,61.2,29.82,ESE,119,0.7,2.0,100,0.11,RA,OVC,0.29,WeatherDisplay:10.37,2013-06-11 06:43:00,
2013-06-11 02:44:00,61.2,61.2,29.82,ESE,119,1.1,2.3,100,0.12,RA,OVC,0.30,WeatherDisplay:10.37,2013-06-11 06:44:00,
2013-06-11 02:45:00,61.2,61.2,29.82,ESE,119,1.4,2.3,100,0.12,RA,OVC,0.31,WeatherDisplay:10.37,2013-06-11 06:45:00,
2013-06-11 02:47:00,61.1,61.1,29.82,ESE,119,0.9,2.3,100,0.12,RA,OVC,0.31,WeatherDisplay:10.37,2013-06-11 06:47:00,
2013-06-11 02:48:00,61.2,61.2,29.82,ESE,119,1.1,2.3,100,0.12,RA,OVC,0.32,WeatherDisplay:10.37,2013-06-11 06:48:00,
2013-06-11 02:49:00,61.1,61.1,29.82,ESE,119,1.5,2.3,100,0.14,RA,OVC,0.33,WeatherDisplay:10.37,2013-06-11 06:49:00,
2013-06-11 02:50:00,61.1,61.1,29.82,ESE,119,1.5,2.3,100,0.13,RA,OVC,0.33,WeatherDisplay:10.37,2013-06-11 06:50:00,
2013-06-11 02:52:00,61.1,61.1,29.82,ESE,119,0.9,2.3,100,0.14,RA,OVC,0.34,WeatherDisplay:10.37,2013-06-11 06:52:00,
2013-06-11 02:53:00,61.1,61.1,29.82,ESE,119,1.5,2.3,100,0.14,RA,OVC,0.34,WeatherDisplay:10.37,2013-06-11 06:53:00,
2013-06-11 02:54:00,61.0,61.0,29.82,ESE,119,0.0,2.3,100,0.14,RA,OVC,0.34,WeatherDisplay:10.37,2013-06-11 06:54:00,
2013-06-11 02:55:00,61.0,61.0,29.82,ESE,119,0.0,0.0,100,0.15,RA,OVC,0.35,WeatherDisplay:10.37,2013-06-11 06:55:00,
2013-06-11 02:57:00,61.0,61.0,29.82,ESE,119,0.0,0.0,100,0.15,RA,OVC,0.35,WeatherDisplay:10.37,2013-06-11 06:57:00,
2013-06-11 02:58:00,61.0,61.0,29.82,ESE,119,0.0,0.0,100,0.15,RA,OVC,0.35,WeatherDisplay:10.37,2013-06-11 06:58:00,
2013-06-11 02:59:00,61.0,61.0,29.82,ESE,119,0.0,0.0,100,0.16,RA,OVC,0.36,WeatherDisplay:10.37,2013-06-11 06:59:00,
2013-06-11 03:02:00,61.0,61.0,29.82,ESE,119,0.0,0.0,100,0.15,RA,OVC,0.37,WeatherDisplay:10.37,2013-06-11 07:02:00,
2013-06-11 03:03:00,61.0,61.0,29.82,ESE,119,0.0,0.0,100,0.16,RA,OVC,0.37,WeatherDisplay:10.37,2013-06-11 07:03:00,
2013-06-11 03:04:00,60.9,60.9,29.82,ESE,119,0.0,0.0,100,0.16,RA,OVC,0.38,WeatherDisplay:10.37,2013-06-11 07:04:00,
2013-06-11 03:08:00,60.9,60.9,29.82,ESE,119,0.0,0.0,100,0.18,RA,OVC,0.39,WeatherDisplay:10.37,2013-06-11 07:08:00,
2013-06-11 03:09:00,60.9,60.9,29.82,ESE,119,0.0,0.0,100,0.18,RA,OVC,0.39,WeatherDisplay:10.37,2013-06-11 07:09:00,
2013-06-11 03:13:00,60.9,60.9,29.82,ESE,119,0.0,0.0,100,0.18,RA,OVC,0.41,WeatherDisplay:10.37,2013-06-11 07:13:00,
2013-06-11 03:14:00,60.8,60.8,29.82,ESE,119,0.0,0.0,100,0.19,RA,OVC,0.41,WeatherDisplay:10.37,2013-06-11 07:14:00,
2013-06-11 03:18:00,60.8,60.8,29.82,ESE,119,0.0,0.0,100,0.21,RA,OVC,0.43,WeatherDisplay:10.37,2013-06-11 07:18:00,
2013-06-11 03:19:00,60.8,60.8,29.81,ESE,119,0.0,0.0,100,0.21,RA,OVC,0.43,WeatherDisplay:10.37,2013-06-11 07:19:00,
2013-06-11 03:20:00,60.8,60.8,29.81,ESE,119,0.0,0.0,100,0.22,RA,OVC,0.44,WeatherDisplay:10.37,2013-06-11 07:20:00,
2013-06-11 03:23:00,60.8,60.8,29.82,ESE,119,0.0,0.0,100,0.23,RA,OVC,0.45,WeatherDisplay:10.37,2013-06-11 07:23:00,
2013-06-11 03:24:00,60.8,60.8,29.82,ESE,119,0.6,2.0,100,0.23,RA,OVC,0.46,WeatherDisplay:10.37,2013-06-11 07:24:00,
2013-06-11 03:25:00,60.8,60.8,29.81,ESE,119,1.4,2.3,100,0.24,RA,OVC,0.46,WeatherDisplay:10.37,2013-06-11 07:25:00,
2013-06-11 03:28:00,60.8,60.8,29.81,ESE,119,1.4,2.3,100,0.24,RA,OVC,0.47,WeatherDisplay:10.37,2013-06-11 07:28:00,
2013-06-11 03:29:00,60.8,60.8,29.81,ESE,119,1.0,2.3,100,0.24,RA,OVC,0.47,WeatherDisplay:10.37,2013-06-11 07:29:00,
2013-06-11 03:30:00,60.8,60.8,29.81,ESE,119,1.5,3.5,100,0.23,RA,OVC,0.47,WeatherDisplay:10.37,2013-06-11 07:30:00,
2013-06-11 03:33:00,60.7,60.7,29.81,ESE,119,1.6,2.3,100,0.23,RA,OVC,0.48,WeatherDisplay:10.37,2013-06-11 07:33:00,
2013-06-11 03:34:00,60.7,60.7,29.81,ESE,119,2.9,3.5,100,0.23,RA,OVC,0.48,WeatherDisplay:10.37,2013-06-11 07:34:00,
2013-06-11 03:35:00,60.7,60.7,29.80,ESE,119,3.4,4.0,100,0.22,RA,OVC,0.48,WeatherDisplay:10.37,2013-06-11 07:35:00,
2013-06-11 03:38:00,60.7,60.7,29.80,ESE,119,2.0,3.5,100,0.22,RA,OVC,0.49,WeatherDisplay:10.37,2013-06-11 07:38:00,
2013-06-11 03:39:00,60.7,60.7,29.80,ESE,119,1.6,3.5,100,0.22,RA,OVC,0.49,WeatherDisplay:10.37,2013-06-11 07:39:00,
2013-06-11 03:40:00,60.7,60.7,29.80,ESE,119,2.2,3.5,100,0.21,RA,OVC,0.50,WeatherDisplay:10.37,2013-06-11 07:40:00,
2013-06-11 03:43:00,60.6,60.6,29.80,ESE,119,2.3,3.5,100,0.21,RA,OVC,0.50,WeatherDisplay:10.37,2013-06-11 07:43:00,
2013-06-11 03:44:00,60.6,60.6,29.80,ESE,119,2.3,3.5,100,0.20,RA,OVC,0.50,WeatherDisplay:10.37,2013-06-11 07:44:00,
2013-06-11 03:45:00,60.6,60.6,29.80,ESE,119,1.5,3.5,100,0.20,RA,OVC,0.51,WeatherDisplay:10.37,2013-06-11 07:45:00,
2013-06-11 03:48:00,60.6,60.6,29.80,ESE,119,2.1,3.5,100,0.19,RA,OVC,0.52,WeatherDisplay:10.37,2013-06-11 07:48:00,
2013-06-11 03:49:00,60.6,60.6,29.79,ESE,119,2.3,3.5,100,0.19,RA,OVC,0.52,WeatherDisplay:10.37,2013-06-11 07:49:00,
2013-06-11 03:50:00,60.5,60.5,29.80,ESE,119,2.2,3.5,100,0.19,RA,OVC,0.52,WeatherDisplay:10.37,2013-06-11 07:50:00,
2013-06-11 03:54:00,60.4,60.4,29.79,ESE,119,1.9,3.5,100,0.19,RA,OVC,0.53,WeatherDisplay:10.37,2013-06-11 07:54:00,
2013-06-11 03:55:00,60.4,60.4,29.79,ESE,119,1.9,2.3,100,0.18,RA,OVC,0.53,WeatherDisplay:10.37,2013-06-11 07:55:00,
2013-06-11 03:59:00,60.4,60.4,29.79,ESE,119,0.7,2.0,100,0.18,RA,OVC,0.54,WeatherDisplay:10.37,2013-06-11 07:59:00,
2013-06-11 04:00:00,60.4,60.4,29.79,ESE,119,1.2,2.3,100,0.18,RA,OVC,0.54,WeatherDisplay:10.37,2013-06-11 08:00:00,
2013-06-11 04:01:00,60.4,60.4,29.79,ESE,119,1.4,2.3,100,0.18,RA,OVC,0.54,WeatherDisplay:10.37,2013-06-11 08:01:00,
2013-06-11 04:04:00,60.3,60.3,29.79,ESE,119,0.0,1.2,100,0.18,RA,OVC,0.55,WeatherDisplay:10.37,2013-06-11 08:04:00,
2013-06-11 04:05:00,60.3,60.3,29.79,ESE,119,0.1,1.2,100,0.17,RA,OVC,0.55,WeatherDisplay:10.37,2013-06-11 08:05:00,
2013-06-11 04:06:00,60.3,60.3,29.79,ESE,119,1.7,2.3,100,0.17,RA,OVC,0.55,WeatherDisplay:10.37,2013-06-11 08:06:00,
2013-06-11 04:07:00,60.3,60.3,29.78,ESE,119,1.7,2.3,100,0.17,RA,OVC,0.55,WeatherDisplay:10.37,2013-06-11 08:07:00,
2013-06-11 04:09:00,60.3,60.3,29.80,ESE,119,0.5,1.2,100,0.16,RA,OVC,0.55,WeatherDisplay:10.37,2013-06-11 08:09:00,
2013-06-11 04:10:00,60.3,60.3,29.78,ESE,119,0.4,1.2,100,0.16,RA,OVC,0.55,WeatherDisplay:10.37,2013-06-11 08:10:00,
2013-06-11 04:12:00,60.3,60.3,29.78,ESE,119,1.8,3.5,100,0.16,RA,OVC,0.56,WeatherDisplay:10.37,2013-06-11 08:12:00,
2013-06-11 04:14:00,60.3,60.3,29.78,ESE,119,1.8,2.3,100,0.15,RA,OVC,0.56,WeatherDisplay:10.37,2013-06-11 08:14:00,
2013-06-11 04:15:00,60.3,60.3,29.78,ESE,119,1.8,2.3,100,0.15,RA,OVC,0.56,WeatherDisplay:10.37,2013-06-11 08:15:00,
2013-06-11 04:17:00,60.3,60.3,29.78,ESE,119,1.8,3.5,100,0.14,RA,OVC,0.56,WeatherDisplay:10.37,2013-06-11 08:17:00,
2013-06-11 04:19:00,60.3,60.3,29.78,ESE,119,1.0,2.3,100,0.13,RA,OVC,0.57,WeatherDisplay:10.37,2013-06-11 08:19:00,
2013-06-11 04:20:00,60.3,60.3,29.77,ESE,119,0.7,1.2,100,0.13,RA,OVC,0.57,WeatherDisplay:10.37,2013-06-11 08:20:00,
2013-06-11 04:21:00,60.3,60.3,29.77,ESE,119,1.1,3.0,100,0.13,RA,OVC,0.57,WeatherDisplay:10.37,2013-06-11 08:21:00,
2013-06-11 04:22:00,60.3,60.3,29.77,ESE,119,1.9,3.5,100,0.12,RA,OVC,0.57,WeatherDisplay:10.37,2013-06-11 08:22:00,
2013-06-11 04:24:00,60.3,60.3,29.77,ESE,119,2.0,2.3,100,0.12,RA,OVC,0.57,WeatherDisplay:10.37,2013-06-11 08:24:00,
2013-06-11 04:25:00,60.3,60.3,29.77,ESE,119,2.0,3.5,100,0.11,RA,OVC,0.57,WeatherDisplay:10.37,2013-06-11 08:25:00,
2013-06-11 04:26:00,60.3,60.3,29.77,ESE,119,1.9,3.5,100,0.11,RA,OVC,0.57,WeatherDisplay:10.37,2013-06-11 08:26:00,
2013-06-11 04:27:00,60.3,60.3,29.77,ESE,119,1.5,3.5,100,0.11,RA,OVC,0.57,WeatherDisplay:10.37,2013-06-11 08:27:00,
2013-06-11 04:29:00,60.3,60.3,29.77,ESE,119,0.5,2.3,100,0.10,RA,OVC,0.57,WeatherDisplay:10.37,2013-06-11 08:29:00,
2013-06-11 04:30:00,60.2,60.2,29.77,ESE,119,0.4,1.2,100,0.10,,OVC,0.57,WeatherDisplay:10.37,2013-06-11 08:30:00,
2013-06-11 04:32:00,60.2,60.2,29.77,ESE,119,0.2,1.2,100,0.11,RA,OVC,0.58,WeatherDisplay:10.37,2013-06-11 08:32:00,
2013-06-11 04:33:00,60.2,60.2,29.77,ESE,119,0.1,1.2,100,0.10,RA,OVC,0.58,WeatherDisplay:10.37,2013-06-11 08:33:00,
2013-06-11 04:34:00,60.2,60.2,29.77,ESE,119,0.0,0.0,100,0.10,RA,OVC,0.58,WeatherDisplay:10.37,2013-06-11 08:34:00,
2013-06-11 04:36:00,60.2,60.2,29.77,ESE,119,0.0,0.0,100,0.10,RA,OVC,0.58,WeatherDisplay:10.37,2013-06-11 08:36:00,
2013-06-11 04:37:00,60.2,60.2,29.77,ESE,119,0.0,0.0,100,0.10,RA,OVC,0.58,WeatherDisplay:10.37,2013-06-11 08:37:00,
2013-06-11 04:38:00,60.2,60.2,29.77,ESE,119,0.1,1.0,100,0.09,RA,OVC,0.58,WeatherDisplay:10.37,2013-06-11 08:38:00,
2013-06-11 04:40:00,60.2,60.2,29.77,ESE,119,0.1,1.2,100,0.09,RA,OVC,0.58,WeatherDisplay:10.37,2013-06-11 08:40:00,
2013-06-11 04:41:00,60.2,60.2,29.77,ESE,119,0.0,0.0,100,0.08,RA,OVC,0.58,WeatherDisplay:10.37,2013-06-11 08:41:00,
2013-06-11 04:42:00,60.2,60.2,29.77,ESE,119,0.0,0.0,100,0.08,,OVC,0.58,WeatherDisplay:10.37,2013-06-11 08:42:00,
2013-06-11 04:43:00,60.2,60.2,29.77,ESE,119,0.0,0.0,100,0.08,,OVC,0.58,WeatherDisplay:10.37,2013-06-11 08:43:00,
2013-06-11 04:45:00,60.2,60.2,29.77,ESE,119,0.7,1.2,100,0.08,CLR,OVC,0.58,WeatherDisplay:10.37,2013-06-11 08:45:00,
2013-06-11 04:46:00,60.2,60.2,29.76,ESE,119,0.5,1.2,100,0.07,CLR,OVC,0.58,WeatherDisplay:10.37,2013-06-11 08:46:00,
2013-06-11 04:47:00,60.2,60.2,29.76,ESE,119,0.5,1.2,100,0.07,CLR,OVC,0.58,WeatherDisplay:10.37,2013-06-11 08:47:00,
2013-06-11 04:48:00,60.2,60.2,29.77,ESE,119,0.5,1.2,100,0.07,CLR,OVC,0.58,WeatherDisplay:10.37,2013-06-11 08:48:00,
2013-06-11 04:49:00,60.2,60.2,29.76,ESE,119,0.4,1.2,100,0.06,CLR,OVC,0.58,WeatherDisplay:10.37,2013-06-11 08:49:00,
2013-06-11 04:50:00,60.2,60.2,29.76,ESE,119,0.1,1.2,100,0.06,CLR,OVC,0.58,WeatherDisplay:10.37,2013-06-11 08:50:00,
2013-06-11 04:52:00,60.2,60.2,29.77,ESE,119,0.0,0.0,100,0.06,CLR,OVC,0.58,WeatherDisplay:10.37,2013-06-11 08:52:00,
2013-06-11 04:53:00,60.2,60.2,29.76,ESE,119,0.0,0.0,100,0.06,CLR,OVC,0.58,WeatherDisplay:10.37,2013-06-11 08:53:00,
2013-06-11 04:54:00,60.2,60.2,29.76,ESE,119,0.0,0.0,100,0.05,CLR,OVC,0.58,WeatherDisplay:10.37,2013-06-11 08:54:00,
2013-06-11 04:55:00,60.2,60.2,29.76,ESE,119,0.0,0.0,100,0.06,RA,OVC,0.59,WeatherDisplay:10.37,2013-06-11 08:55:00,
2013-06-11 04:57:00,60.1,60.1,29.76,ESE,119,0.2,1.0,100,0.06,RA,OVC,0.59,WeatherDisplay:10.37,2013-06-11 08:57:00,
2013-06-11 04:58:00,60.2,60.2,29.76,ESE,119,0.4,1.2,100,0.05,RA,OVC,0.59,WeatherDisplay:10.37,2013-06-11 08:58:00,
2013-06-11 04:59:00,60.1,60.1,29.76,ESE,119,0.0,0.0,100,0.05,RA,OVC,0.59,WeatherDisplay:10.37,2013-06-11 08:59:00,
2013-06-11 05:00:00,60.1,60.1,29.76,ESE,119,0.0,0.0,100,0.05,RA,OVC,0.59,WeatherDisplay:10.37,2013-06-11 09:00:00,
2013-06-11 05:02:00,60.1,60.1,29.76,ESE,119,0.0,0.0,100,0.05,RA,OVC,0.59,WeatherDisplay:10.37,2013-06-11 09:02:00,
2013-06-11 05:03:00,60.1,60.1,29.76,ESE,119,0.0,0.0,100,0.06,RA,OVC,0.60,WeatherDisplay:10.37,2013-06-11 09:03:00,
2013-06-11 05:04:00,60.1,60.1,29.76,ESE,119,0.0,0.0,100,0.05,RA,OVC,0.60,WeatherDisplay:10.37,2013-06-11 09:04:00,
2013-06-11 05:05:00,60.1,60.1,29.76,ESE,119,0.0,0.0,100,0.05,RA,OVC,0.60,WeatherDisplay:10.37,2013-06-11 09:05:00,
2013-06-11 05:07:00,60.1,60.1,29.76,ESE,119,0.0,0.0,100,0.05,RA,OVC,0.60,WeatherDisplay:10.37,2013-06-11 09:07:00,
2013-06-11 05:08:00,60.1,60.1,29.76,ESE,119,0.0,0.0,100,0.05,RA,OVC,0.60,WeatherDisplay:10.37,2013-06-11 09:08:00,
2013-06-11 05:10:00,60.1,60.1,29.76,ESE,119,0.0,0.0,100,0.05,RA,OVC,0.60,WeatherDisplay:10.37,2013-06-11 09:10:00,
2013-06-11 05:12:00,60.1,60.1,29.76,ESE,119,0.0,0.0,100,0.05,RA,OVC,0.61,WeatherDisplay:10.37,2013-06-11 09:12:00,
2013-06-11 05:13:00,60.1,60.1,29.75,ESE,119,0.0,0.0,100,0.05,RA,OVC,0.61,WeatherDisplay:10.37,2013-06-11 09:13:00,
2013-06-11 05:15:00,60.1,60.1,29.76,ESE,119,0.0,0.0,100,0.05,RA,OVC,0.61,WeatherDisplay:10.37,2013-06-11 09:15:00,
2013-06-11 05:18:00,60.1,60.1,29.75,ESE,119,0.0,0.0,100,0.05,RA,OVC,0.61,WeatherDisplay:10.37,2013-06-11 09:18:00,
2013-06-11 05:20:00,60.1,60.1,29.75,ESE,119,0.0,0.0,100,0.05,RA,OVC,0.62,WeatherDisplay:10.37,2013-06-11 09:20:00,
2013-06-11 05:23:00,60.1,60.1,29.76,ESE,119,0.0,0.0,100,0.06,RA,OVC,0.63,WeatherDisplay:10.37,2013-06-11 09:23:00,
2013-06-11 05:24:00,60.1,60.1,29.75,ESE,119,0.0,0.0,100,0.06,RA,OVC,0.63,WeatherDisplay:10.37,2013-06-11 09:24:00,
2013-06-11 05:26:00,60.1,60.1,29.75,ESE,119,0.0,0.0,100,0.06,RA,OVC,0.64,WeatherDisplay:10.37,2013-06-11 09:26:00,
2013-06-11 05:28:00,60.1,60.1,29.75,ESE,119,0.0,0.0,100,0.07,RA,OVC,0.65,WeatherDisplay:10.37,2013-06-11 09:28:00,
2013-06-11 05:29:00,60.1,60.1,29.75,ESE,119,0.0,0.0,100,0.08,RA,OVC,0.65,WeatherDisplay:10.37,2013-06-11 09:29:00,
2013-06-11 05:31:00,60.1,60.1,29.75,ESE,119,0.0,0.0,100,0.08,RA,OVC,0.65,WeatherDisplay:10.37,2013-06-11 09:31:00,
2013-06-11 05:33:00,60.1,60.1,29.75,ESE,119,0.0,0.0,100,0.08,RA,OVC,0.66,WeatherDisplay:10.37,2013-06-11 09:33:00,
2013-06-11 05:34:00,60.1,60.1,29.75,ESE,119,0.0,0.0,100,0.08,RA,OVC,0.66,WeatherDisplay:10.37,2013-06-11 09:34:00,
2013-06-11 05:37:00,60.1,60.1,29.75,ESE,119,0.9,3.5,100,0.09,RA,OVC,0.67,WeatherDisplay:10.37,2013-06-11 09:37:00,
2013-06-11 05:38:00,60.1,60.1,29.75,ESE,119,0.4,2.3,100,0.10,RA,OVC,0.68,WeatherDisplay:10.37,2013-06-11 09:38:00,
2013-06-11 05:39:00,60.1,60.1,29.75,ESE,119,1.2,2.3,100,0.10,RA,OVC,0.68,WeatherDisplay:10.37,2013-06-11 09:39:00,
2013-06-11 05:43:00,60.1,60.1,29.74,ESE,119,2.4,3.5,100,0.11,RA,OVC,0.69,WeatherDisplay:10.37,2013-06-11 09:43:00,
2013-06-11 05:44:00,60.1,60.1,29.75,ESE,119,2.2,3.5,100,0.11,RA,OVC,0.69,WeatherDisplay:10.37,2013-06-11 09:44:00,
2013-06-11 05:45:00,60.1,60.1,29.74,ESE,119,2.2,3.5,100,0.11,RA,OVC,0.69,WeatherDisplay:10.37,2013-06-11 09:45:00,
2013-06-11 05:48:00,60.0,60.0,29.74,ESE,119,1.9,2.3,100,0.12,RA,OVC,0.70,WeatherDisplay:10.37,2013-06-11 09:48:00,
2013-06-11 05:49:00,60.0,60.0,29.75,ESE,119,2.0,3.5,100,0.12,RA,OVC,0.70,WeatherDisplay:10.37,2013-06-11 09:49:00,
2013-06-11 05:50:00,60.0,60.0,29.74,ESE,119,1.9,3.5,100,0.13,RA,OVC,0.71,WeatherDisplay:10.37,2013-06-11 09:50:00,
2013-06-11 05:53:00,60.0,60.0,29.74,ESE,119,1.8,2.3,100,0.13,RA,OVC,0.71,WeatherDisplay:10.37,2013-06-11 09:53:00,
2013-06-11 05:54:00,60.0,60.0,29.74,ESE,119,2.2,3.5,100,0.13,RA,OVC,0.71,WeatherDisplay:10.37,2013-06-11 09:54:00,
2013-06-11 05:55:00,60.0,60.0,29.74,ESE,119,2.5,3.5,100,0.12,RA,OVC,0.71,WeatherDisplay:10.37,2013-06-11 09:55:00,
2013-06-11 05:58:00,60.0,60.0,29.74,ESE,108,2.4,3.5,100,0.13,RA,OVC,0.72,WeatherDisplay:10.37,2013-06-11 09:58:00,
2013-06-11 05:59:00,60.0,60.0,29.74,ESE,108,2.0,3.5,100,0.13,RA,OVC,0.72,WeatherDisplay:10.37,2013-06-11 09:59:00,
2013-06-11 06:00:00,60.0,60.0,29.74,ESE,107,1.6,4.0,100,0.13,RA,OVC,0.72,WeatherDisplay:10.37,2013-06-11 10:00:00,
2013-06-11 06:03:00,60.0,60.0,29.74,ESE,106,2.2,3.5,100,0.12,RA,OVC,0.72,WeatherDisplay:10.37,2013-06-11 10:03:00,
2013-06-11 06:04:00,60.0,60.0,29.74,ESE,107,1.7,3.5,100,0.12,RA,OVC,0.72,WeatherDisplay:10.37,2013-06-11 10:04:00,
2013-06-11 06:05:00,60.0,60.0,29.74,ESE,106,1.2,3.0,100,0.12,RA,OVC,0.72,WeatherDisplay:10.37,2013-06-11 10:05:00,
2013-06-11 06:06:00,60.0,60.0,29.73,ESE,106,2.6,3.5,100,0.12,RA,OVC,0.72,WeatherDisplay:10.37,2013-06-11 10:06:00,
2013-06-11 06:08:00,60.0,60.0,29.74,ESE,106,2.2,3.5,100,0.13,RA,OVC,0.73,WeatherDisplay:10.37,2013-06-11 10:08:00,
2013-06-11 06:09:00,60.0,60.0,29.74,ESE,106,2.5,3.5,100,0.13,RA,OVC,0.73,WeatherDisplay:10.37,2013-06-11 10:09:00,
2013-06-11 06:10:00,60.0,60.0,29.73,ESE,106,2.4,3.5,100,0.13,RA,OVC,0.73,WeatherDisplay:10.37,2013-06-11 10:10:00,
2013-06-11 06:11:00,60.0,60.0,29.73,ESE,106,1.8,3.5,100,0.13,RA,OVC,0.73,WeatherDisplay:10.37,2013-06-11 10:11:00,
2013-06-11 06:12:00,60.0,60.0,29.73,ESE,106,2.2,3.5,100,0.12,RA,OVC,0.73,WeatherDisplay:10.37,2013-06-11 10:12:00,
2013-06-11 06:13:00,60.0,60.0,29.73,ESE,104,2.7,3.5,100,0.12,RA,OVC,0.73,WeatherDisplay:10.37,2013-06-11 10:13:00,
2013-06-11 06:14:00,60.0,60.0,29.73,ESE,104,2.3,3.5,100,0.12,RA,OVC,0.73,WeatherDisplay:10.37,2013-06-11 10:14:00,
2013-06-11 06:15:00,60.0,60.0,29.73,ESE,104,2.2,3.5,100,0.12,RA,OVC,0.73,WeatherDisplay:10.37,2013-06-11 10:15:00,
2013-06-11 06:16:00,60.0,60.0,29.73,ESE,104,2.4,3.5,100,0.12,RA,OVC,0.73,WeatherDisplay:10.37,2013-06-11 10:16:00,
2013-06-11 06:17:00,60.0,60.0,29.73,ESE,104,1.7,3.5,100,0.12,RA,OVC,0.73,WeatherDisplay:10.37,2013-06-11 10:17:00,
2013-06-11 06:18:00,60.0,60.0,29.73,ESE,104,1.7,2.3,100,0.12,,OVC,0.73,WeatherDisplay:10.37,2013-06-11 10:18:00,
2013-06-11 06:19:00,60.0,60.0,29.73,ESE,105,2.1,3.0,100,0.11,,OVC,0.73,WeatherDisplay:10.37,2013-06-11 10:19:00,
2013-06-11 06:20:00,60.0,60.0,29.73,ESE,102,3.0,4.0,100,0.11,CLR,OVC,0.73,WeatherDisplay:10.37,2013-06-11 10:20:00,
2013-06-11 06:21:00,60.0,60.0,29.73,East,101,3.2,3.5,100,0.11,CLR,OVC,0.73,WeatherDisplay:10.37,2013-06-11 10:21:00,
2013-06-11 06:23:00,60.0,60.0,29.73,East,97,3.1,3.5,100,0.11,RA,OVC,0.74,WeatherDisplay:10.37,2013-06-11 10:23:00,
2013-06-11 06:25:00,60.0,60.0,29.73,East,96,2.5,3.5,100,0.11,RA,OVC,0.74,WeatherDisplay:10.37,2013-06-11 10:25:00,
2013-06-11 06:26:00,60.0,60.0,29.73,East,97,2.3,3.5,100,0.10,RA,OVC,0.74,WeatherDisplay:10.37,2013-06-11 10:26:00,
2013-06-11 06:28:00,60.0,60.0,29.73,East,96,2.3,3.5,100,0.10,RA,OVC,0.74,WeatherDisplay:10.37,2013-06-11 10:28:00,
2013-06-11 06:29:00,60.0,60.0,29.73,East,96,2.6,3.5,100,0.09,RA,OVC,0.74,WeatherDisplay:10.37,2013-06-11 10:29:00,
2013-06-11 06:30:00,60.0,60.0,29.73,East,97,1.8,3.5,100,0.09,RA,OVC,0.74,WeatherDisplay:10.37,2013-06-11 10:30:00,
2013-06-11 06:31:00,60.0,60.0,29.73,East,96,2.6,3.5,100,0.10,RA,OVC,0.75,WeatherDisplay:10.37,2013-06-11 10:31:00,
2013-06-11 06:32:00,60.0,60.0,29.73,East,96,1.7,3.5,100,0.09,RA,OVC,0.75,WeatherDisplay:10.37,2013-06-11 10:32:00,
2013-06-11 06:33:00,60.0,60.0,29.73,East,96,2.8,3.5,100,0.09,RA,OVC,0.75,WeatherDisplay:10.37,2013-06-11 10:33:00,
2013-06-11 06:35:00,60.0,60.0,29.73,East,96,2.8,3.5,100,0.09,RA,OVC,0.75,WeatherDisplay:10.37,2013-06-11 10:35:00,
2013-06-11 06:36:00,60.0,60.0,29.73,East,96,2.1,3.5,100,0.08,RA,OVC,0.75,WeatherDisplay:10.37,2013-06-11 10:36:00,
2013-06-11 06:37:00,60.0,60.0,29.73,East,96,2.2,3.5,100,0.08,RA,OVC,0.75,WeatherDisplay:10.37,2013-06-11 10:37:00,
2013-06-11 06:38:00,60.0,60.0,29.73,East,96,2.1,3.5,100,0.07,RA,OVC,0.75,WeatherDisplay:10.37,2013-06-11 10:38:00,
2013-06-11 06:40:00,60.0,60.0,29.72,East,95,3.0,3.5,100,0.08,RA,OVC,0.76,WeatherDisplay:10.37,2013-06-11 10:40:00,
2013-06-11 06:41:00,60.0,60.0,29.73,East,95,2.2,3.5,100,0.07,RA,OVC,0.76,WeatherDisplay:10.37,2013-06-11 10:41:00,
2013-06-11 06:43:00,60.0,60.0,29.72,East,95,1.5,2.3,100,0.07,RA,OVC,0.76,WeatherDisplay:10.37,2013-06-11 10:43:00,
2013-06-11 06:45:00,59.9,59.9,29.73,East,95,1.6,3.5,100,0.07,RA,OVC,0.76,WeatherDisplay:10.37,2013-06-11 10:45:00,
2013-06-11 06:47:00,59.9,59.9,29.72,East,95,2.6,3.5,100,0.06,RA,OVC,0.76,WeatherDisplay:10.37,2013-06-11 10:47:00,
2013-06-11 06:48:00,60.0,60.0,29.72,East,95,2.0,3.5,100,0.06,RA,OVC,0.76,WeatherDisplay:10.37,2013-06-11 10:48:00,
2013-06-11 06:49:00,60.0,60.0,29.72,East,96,2.2,3.5,100,0.06,RA,OVC,0.77,WeatherDisplay:10.37,2013-06-11 10:49:00,
2013-06-11 06:50:00,60.0,60.0,29.72,East,95,1.6,3.5,100,0.06,RA,OVC,0.77,WeatherDisplay:10.37,2013-06-11 10:50:00,
2013-06-11 06:52:00,60.0,60.0,29.72,East,95,1.6,3.5,100,0.06,RA,OVC,0.77,WeatherDisplay:10.37,2013-06-11 10:52:00,
2013-06-11 06:53:00,60.0,60.0,29.72,East,95,1.7,2.3,100,0.06,RA,OVC,0.77,WeatherDisplay:10.37,2013-06-11 10:53:00,
2013-06-11 06:54:00,60.0,60.0,29.72,East,96,1.3,3.5,100,0.06,RA,OVC,0.77,WeatherDisplay:10.37,2013-06-11 10:54:00,
2013-06-11 06:55:00,60.0,60.0,29.72,East,95,1.0,2.3,100,0.06,RA,OVC,0.77,WeatherDisplay:10.37,2013-06-11 10:55:00,
2013-06-11 06:56:00,60.0,60.0,29.72,East,96,0.6,2.3,100,0.06,RA,OVC,0.77,WeatherDisplay:10.37,2013-06-11 10:56:00,
2013-06-11 06:57:00,60.0,60.0,29.73,East,95,2.0,3.5,100,0.05,RA,OVC,0.77,WeatherDisplay:10.37,2013-06-11 10:57:00,
2013-06-11 06:58:00,60.0,60.0,29.72,East,95,2.1,3.5,100,0.05,RA,OVC,0.77,WeatherDisplay:10.37,2013-06-11 10:58:00,
2013-06-11 06:59:00,60.0,60.0,29.73,East,95,0.9,3.5,100,0.05,,OVC,0.78,WeatherDisplay:10.37,2013-06-11 10:59:00,
2013-06-11 07:01:00,60.1,60.1,29.72,East,95,1.2,2.3,100,0.06,RA,OVC,0.78,WeatherDisplay:10.37,2013-06-11 11:01:00,
2013-06-11 07:02:00,60.1,60.1,29.72,East,95,1.6,3.5,100,0.06,RA,OVC,0.78,WeatherDisplay:10.37,2013-06-11 11:02:00,
2013-06-11 07:03:00,60.1,60.1,29.72,East,95,2.0,2.3,100,0.06,RA,OVC,0.78,WeatherDisplay:10.37,2013-06-11 11:03:00,
2013-06-11 07:04:00,60.1,60.1,29.72,East,95,1.8,3.5,100,0.06,RA,OVC,0.78,WeatherDisplay:10.37,2013-06-11 11:04:00,
2013-06-11 07:06:00,60.1,60.1,29.72,East,95,1.1,2.3,100,0.06,RA,OVC,0.78,WeatherDisplay:10.37,2013-06-11 11:06:00,
2013-06-11 07:08:00,60.1,60.1,29.72,East,95,1.4,3.5,100,0.05,RA,OVC,0.78,WeatherDisplay:10.37,2013-06-11 11:08:00,
2013-06-11 07:10:00,60.1,60.1,29.72,East,96,1.0,2.3,100,0.06,RA,OVC,0.79,WeatherDisplay:10.37,2013-06-11 11:10:00,
2013-06-11 07:11:00,60.1,60.1,29.72,East,95,2.4,3.5,100,0.06,RA,OVC,0.79,WeatherDisplay:10.37,2013-06-11 11:11:00,
2013-06-11 07:12:00,60.1,60.1,29.72,East,95,2.3,3.5,100,0.06,RA,OVC,0.79,WeatherDisplay:10.37,2013-06-11 11:12:00,
2013-06-11 07:13:00,60.1,60.1,29.72,East,95,1.6,3.5,100,0.06,RA,OVC,0.79,WeatherDisplay:10.37,2013-06-11 11:13:00,
2013-06-11 07:15:00,60.2,60.2,29.72,East,95,1.3,3.5,100,0.06,RA,OVC,0.79,WeatherDisplay:10.37,2013-06-11 11:15:00,
2013-06-11 07:16:00,60.2,60.2,29.72,East,95,0.7,2.3,100,0.06,RA,OVC,0.80,WeatherDisplay:10.37,2013-06-11 11:16:00,
2013-06-11 07:17:00,60.2,60.2,29.72,East,95,0.8,2.3,100,0.07,RA,OVC,0.80,WeatherDisplay:10.37,2013-06-11 11:17:00,
2013-06-11 07:18:00,60.2,60.2,29.72,East,95,1.5,3.5,100,0.07,RA,OVC,0.80,WeatherDisplay:10.37,2013-06-11 11:18:00,
2013-06-11 07:19:00,60.2,60.2,29.72,East,95,2.3,3.5,100,0.07,RA,OVC,0.80,WeatherDisplay:10.37,2013-06-11 11:19:00,
2013-06-11 07:20:00,60.2,60.2,29.72,East,95,2.9,3.5,100,0.07,RA,OVC,0.80,WeatherDisplay:10.37,2013-06-11 11:20:00,
2013-06-11 07:22:00,60.2,60.2,29.72,East,96,1.9,3.5,100,0.06,RA,OVC,0.80,WeatherDisplay:10.37,2013-06-11 11:22:00,
2013-06-11 07:23:00,60.2,60.2,29.71,East,95,2.4,3.5,100,0.06,RA,OVC,0.80,WeatherDisplay:10.37,2013-06-11 11:23:00,
2013-06-11 07:24:00,60.2,60.2,29.71,East,96,2.1,3.5,100,0.06,RA,OVC,0.80,WeatherDisplay:10.37,2013-06-11 11:24:00,
2013-06-11 07:25:00,60.2,60.2,29.71,East,95,2.2,3.5,100,0.06,RA,OVC,0.80,WeatherDisplay:10.37,2013-06-11 11:25:00,
2013-06-11 07:27:00,60.2,60.2,29.71,East,95,1.9,3.5,100,0.07,RA,OVC,0.81,WeatherDisplay:10.37,2013-06-11 11:27:00,
2013-06-11 07:28:00,60.2,60.2,29.71,East,95,1.7,3.5,100,0.07,RA,OVC,0.81,WeatherDisplay:10.37,2013-06-11 11:28:00,
2013-06-11 07:29:00,60.2,60.2,29.71,East,95,1.9,3.5,100,0.07,RA,OVC,0.81,WeatherDisplay:10.37,2013-06-11 11:29:00,
2013-06-11 07:30:00,60.2,60.2,29.72,East,95,1.2,3.5,100,0.07,RA,OVC,0.81,WeatherDisplay:10.37,2013-06-11 11:30:00,
2013-06-11 07:32:00,60.2,60.2,29.71,East,95,1.1,2.3,100,0.06,RA,OVC,0.81,WeatherDisplay:10.37,2013-06-11 11:32:00,
2013-06-11 07:33:00,60.2,60.2,29.72,East,95,1.2,2.3,100,0.06,RA,OVC,0.81,WeatherDisplay:10.37,2013-06-11 11:33:00,
2013-06-11 07:34:00,60.2,60.2,29.72,East,95,1.5,3.0,100,0.06,RA,OVC,0.81,WeatherDisplay:10.37,2013-06-11 11:34:00,
2013-06-11 07:36:00,60.2,60.2,29.72,East,95,2.2,3.5,100,0.06,RA,OVC,0.81,WeatherDisplay:10.37,2013-06-11 11:36:00,
2013-06-11 07:37:00,60.3,60.3,29.72,East,95,1.9,3.5,100,0.06,,OVC,0.81,WeatherDisplay:10.37,2013-06-11 11:37:00,
2013-06-11 07:38:00,60.3,60.3,29.72,East,95,2.4,3.5,100,0.06,,OVC,0.81,WeatherDisplay:10.37,2013-06-11 11:38:00,
2013-06-11 07:39:00,60.3,60.3,29.72,East,95,1.6,3.5,100,0.06,CLR,OVC,0.81,WeatherDisplay:10.37,2013-06-11 11:39:00,
2013-06-11 07:41:00,60.3,60.3,29.72,East,95,1.0,2.3,100,0.05,CLR,OVC,0.81,WeatherDisplay:10.37,2013-06-11 11:41:00,
2013-06-11 07:42:00,60.3,60.3,29.72,East,96,2.3,3.5,100,0.05,CLR,OVC,0.81,WeatherDisplay:10.37,2013-06-11 11:42:00,
2013-06-11 07:43:00,60.3,60.3,29.72,East,95,2.1,3.5,100,0.05,CLR,OVC,0.81,WeatherDisplay:10.37,2013-06-11 11:43:00,
2013-06-11 07:44:00,60.3,60.3,29.72,East,95,2.7,3.5,100,0.05,CLR,OVC,0.81,WeatherDisplay:10.37,2013-06-11 11:44:00,
2013-06-11 07:45:00,60.3,60.3,29.72,East,95,2.8,3.5,100,0.05,CLR,OVC,0.81,WeatherDisplay:10.37,2013-06-11 11:45:00,
2013-06-11 07:46:00,60.2,60.2,29.72,East,95,2.4,3.5,100,0.05,CLR,OVC,0.81,WeatherDisplay:10.37,2013-06-11 11:46:00,
2013-06-11 07:47:00,60.2,60.2,29.72,East,95,0.9,2.3,100,0.06,RA,OVC,0.82,WeatherDisplay:10.37,2013-06-11 11:47:00,
2013-06-11 07:48:00,60.2,60.2,29.72,East,95,1.5,2.3,100,0.06,RA,OVC,0.82,WeatherDisplay:10.37,2013-06-11 11:48:00,
2013-06-11 07:49:00,60.2,60.2,29.72,East,95,1.3,3.5,100,0.05,RA,OVC,0.82,WeatherDisplay:10.37,2013-06-11 11:49:00,
2013-06-11 07:50:00,60.2,60.2,29.72,East,95,2.5,3.5,100,0.05,RA,OVC,0.82,WeatherDisplay:10.37,2013-06-11 11:50:00,
2013-06-11 07:51:00,60.3,60.3,29.72,East,95,1.8,3.5,100,0.05,RA,OVC,0.82,WeatherDisplay:10.37,2013-06-11 11:51:00,
2013-06-11 07:53:00,60.3,60.3,29.72,East,95,1.7,3.5,100,0.05,RA,OVC,0.82,WeatherDisplay:10.37,2013-06-11 11:53:00,
2013-06-11 07:54:00,60.3,60.3,29.72,East,95,1.7,3.0,100,0.05,RA,OVC,0.82,WeatherDisplay:10.37,2013-06-11 11:54:00,
2013-06-11 07:55:00,60.3,60.3,29.72,East,95,1.9,3.5,100,0.05,RA,OVC,0.82,WeatherDisplay:10.37,2013-06-11 11:55:00,
2013-06-11 07:57:00,60.3,60.3,29.72,East,95,2.1,3.5,100,0.05,,OVC,0.82,WeatherDisplay:10.37,2013-06-11 11:57:00,
2013-06-11 07:58:00,60.4,60.4,29.72,East,95,2.4,4.0,100,0.05,,OVC,0.82,WeatherDisplay:10.37,2013-06-11 11:58:00,
2013-06-11 07:59:00,60.4,60.4,29.72,East,95,2.3,3.5,100,0.05,CLR,OVC,0.83,WeatherDisplay:10.37,2013-06-11 11:59:00,
2013-06-11 08:01:00,60.4,60.4,29.72,East,95,2.9,3.5,100,0.05,RA,OVC,0.83,WeatherDisplay:10.37,2013-06-11 12:01:00,
2013-06-11 08:02:00,60.4,60.4,29.71,East,96,3.1,3.5,100,0.05,RA,OVC,0.83,WeatherDisplay:10.37,2013-06-11 12:02:00,
2013-06-11 08:03:00,60.5,60.5,29.71,East,95,2.8,3.5,100,0.05,RA,OVC,0.83,WeatherDisplay:10.37,2013-06-11 12:03:00,
2013-06-11 08:04:00,60.4,60.4,29.72,East,95,2.2,3.5,100,0.05,RA,OVC,0.83,WeatherDisplay:10.37,2013-06-11 12:04:00,
2013-06-11 08:06:00,60.4,60.4,29.71,East,95,2.0,3.5,100,0.05,RA,OVC,0.83,WeatherDisplay:10.37,2013-06-11 12:06:00,
2013-06-11 08:07:00,60.4,60.4,29.72,East,95,1.3,2.3,100,0.05,RA,OVC,0.83,WeatherDisplay:10.37,2013-06-11 12:07:00,
2013-06-11 08:08:00,60.4,60.4,29.72,East,95,0.1,1.2,100,0.05,RA,OVC,0.83,WeatherDisplay:10.37,2013-06-11 12:08:00,
2013-06-11 08:09:00,60.4,60.4,29.72,East,95,0.0,0.0,100,0.05,RA,OVC,0.83,WeatherDisplay:10.37,2013-06-11 12:09:00,
2013-06-11 08:11:00,60.4,60.4,29.71,East,95,0.5,1.2,100,0.04,,OVC,0.83,WeatherDisplay:10.37,2013-06-11 12:11:00,
2013-06-11 08:12:00,60.5,60.5,29.71,SE,124,1.0,2.3,100,0.04,CLR,OVC,0.83,WeatherDisplay:10.37,2013-06-11 12:12:00,
2013-06-11 08:14:00,60.5,60.5,29.71,SE,124,1.8,3.5,100,0.04,CLR,OVC,0.83,WeatherDisplay:10.37,2013-06-11 12:14:00,
2013-06-11 08:17:00,60.5,60.5,29.72,SE,124,2.2,3.5,100,0.04,RA,OVC,0.84,WeatherDisplay:10.37,2013-06-11 12:17:00,
2013-06-11 08:19:00,60.5,60.5,29.72,SE,124,1.8,3.5,100,0.04,RA,OVC,0.84,WeatherDisplay:10.37,2013-06-11 12:19:00,
2013-06-11 08:22:00,60.5,60.5,29.71,SE,125,0.4,2.3,100,0.04,RA,OVC,0.84,WeatherDisplay:10.37,2013-06-11 12:22:00,
2013-06-11 08:23:00,60.5,60.5,29.71,SE,124,0.0,0.0,100,0.04,RA,OVC,0.84,WeatherDisplay:10.37,2013-06-11 12:23:00,
2013-06-11 08:24:00,60.5,60.5,29.71,SE,124,0.1,1.0,100,0.04,RA,OVC,0.84,WeatherDisplay:10.37,2013-06-11 12:24:00,
2013-06-11 08:25:00,60.5,60.5,29.71,SE,124,0.0,3.0,100,0.00,RA,OVC,0.84,WeatherDisplay:10.37,2013-06-11 12:25:00,
2013-06-11 08:27:00,60.6,60.6,29.72,SE,124,0.1,1.2,100,0.03,,OVC,0.84,WeatherDisplay:10.37,2013-06-11 12:27:00,
2013-06-11 08:28:00,60.6,60.6,29.71,SE,124,0.0,1.2,100,0.03,CLR,OVC,0.84,WeatherDisplay:10.37,2013-06-11 12:28:00,
2013-06-11 08:29:00,60.6,60.6,29.72,SE,124,0.0,0.0,100,0.03,CLR,OVC,0.84,WeatherDisplay:10.37,2013-06-11 12:29:00,
2013-06-11 08:30:00,60.6,60.6,29.71,SE,125,0.0,0.0,100,0.03,CLR,OVC,0.84,WeatherDisplay:10.37,2013-06-11 12:30:00,
2013-06-11 08:32:00,60.6,60.6,29.72,SE,124,2.8,4.0,100,0.03,CLR,OVC,0.84,WeatherDisplay:10.37,2013-06-11 12:32:00,
2013-06-11 08:33:00,60.5,60.5,29.72,SE,125,3.7,4.6,100,0.03,CLR,OVC,0.84,WeatherDisplay:10.37,2013-06-11 12:33:00,
2013-06-11 08:34:00,60.4,60.4,29.71,SE,125,3.2,4.6,100,0.03,CLR,OVC,0.84,WeatherDisplay:10.37,2013-06-11 12:34:00,
2013-06-11 08:35:00,60.4,60.4,29.72,SE,125,2.8,4.6,100,0.03,CLR,OVC,0.84,WeatherDisplay:10.37,2013-06-11 12:35:00,
2013-06-11 08:37:00,60.2,60.2,29.71,SE,130,5.1,6.0,100,0.04,RA,OVC,0.85,WeatherDisplay:10.37,2013-06-11 12:37:00,
2013-06-11 08:38:00,60.1,60.1,29.72,SE,138,4.7,6.9,100,0.04,RA,OVC,0.85,WeatherDisplay:10.37,2013-06-11 12:38:00,
2013-06-11 08:39:00,60.1,60.1,29.71,SSE,156,5.1,6.9,100,0.04,RA,OVC,0.85,WeatherDisplay:10.37,2013-06-11 12:39:00,
2013-06-11 08:40:00,60.0,60.0,29.72,SSE,156,3.6,6.9,100,0.04,RA,OVC,0.85,WeatherDisplay:10.37,2013-06-11 12:40:00,
2013-06-11 08:43:00,59.9,59.9,29.71,SSE,153,3.0,4.0,100,0.04,RA,OVC,0.85,WeatherDisplay:10.37,2013-06-11 12:43:00,
2013-06-11 08:44:00,59.8,59.8,29.71,SSE,156,4.9,5.8,100,0.04,RA,OVC,0.85,WeatherDisplay:10.37,2013-06-11 12:44:00,
2013-06-11 08:45:00,59.7,59.7,29.71,SSE,156,3.8,5.8,100,0.04,RA,OVC,0.85,WeatherDisplay:10.37,2013-06-11 12:45:00,
2013-06-11 08:48:00,59.6,59.6,29.71,SSE,152,3.4,6.9,100,0.03,,OVC,0.85,WeatherDisplay:10.37,2013-06-11 12:48:00,
2013-06-11 08:49:00,59.6,59.6,29.71,SSE,152,2.5,4.6,100,0.03,CLR,OVC,0.85,WeatherDisplay:10.37,2013-06-11 12:49:00,
2013-06-11 08:50:00,59.6,59.6,29.71,SSE,152,3.2,5.0,100,0.03,CLR,OVC,0.85,WeatherDisplay:10.37,2013-06-11 12:50:00,
2013-06-11 08:53:00,59.5,59.5,29.71,South,178,4.0,6.9,100,0.03,CLR,OVC,0.85,WeatherDisplay:10.37,2013-06-11 12:53:00,
2013-06-11 08:54:00,59.5,59.5,29.71,South,178,3.5,5.8,100,0.03,CLR,OVC,0.85,WeatherDisplay:10.37,2013-06-11 12:54:00,
2013-06-11 08:55:00,59.4,59.4,29.71,South,178,3.5,5.0,100,0.03,CLR,OVC,0.85,WeatherDisplay:10.37,2013-06-11 12:55:00,
2013-06-11 08:58:00,59.4,59.4,29.71,SSE,166,5.6,8.1,100,0.03,CLR,OVC,0.85,WeatherDisplay:10.37,2013-06-11 12:58:00,
2013-06-11 08:59:00,59.4,59.4,29.71,South,175,5.7,6.9,100,0.03,CLR,OVC,0.85,WeatherDisplay:10.37,2013-06-11 12:59:00,
2013-06-11 09:00:00,59.4,59.4,29.71,South,190,4.8,6.9,100,0.02,CLR,OVC,0.85,WeatherDisplay:10.37,2013-06-11 13:00:00,
2013-06-11 09:01:00,59.4,59.4,29.71,South,187,4.4,6.9,100,0.02,CLR,OVC,0.85,WeatherDisplay:10.37,2013-06-11 13:01:00,
2013-06-11 09:04:00,59.4,59.4,29.71,SSE,167,2.9,5.8,100,0.02,CLR,OVC,0.85,WeatherDisplay:10.37,2013-06-11 13:04:00,
2013-06-11 09:05:00,59.4,59.4,29.71,South,172,6.1,8.1,100,0.02,CLR,OVC,0.85,WeatherDisplay:10.37,2013-06-11 13:05:00,
2013-06-11 09:06:00,59.4,59.4,29.71,SSE,164,6.0,8.1,100,0.02,CLR,OVC,0.85,WeatherDisplay:10.37,2013-06-11 13:06:00,
2013-06-11 09:09:00,59.3,59.3,29.71,South,176,5.3,8.1,100,0.03,RA,OVC,0.86,WeatherDisplay:10.37,2013-06-11 13:09:00,
2013-06-11 09:10:00,59.3,59.3,29.71,South,179,5.1,9.2,100,0.03,RA,OVC,0.86,WeatherDisplay:10.37,2013-06-11 13:10:00,
2013-06-11 09:11:00,59.3,59.3,29.71,South,173,5.7,9.2,100,0.03,RA,OVC,0.86,WeatherDisplay:10.37,2013-06-11 13:11:00,
2013-06-11 09:14:00,59.3,59.3,29.71,South,180,6.2,8.1,100,0.03,RA,OVC,0.86,WeatherDisplay:10.37,2013-06-11 13:14:00,
2013-06-11 09:15:00,59.3,59.3,29.71,South,175,5.1,6.9,100,0.03,RA,OVC,0.86,WeatherDisplay:10.37,2013-06-11 13:15:00,
2013-06-11 09:16:00,59.4,59.4,29.71,South,175,4.7,5.8,100,0.02,RA,OVC,0.86,WeatherDisplay:10.37,2013-06-11 13:16:00,
2013-06-11 09:17:00,59.4,59.4,29.71,South,169,5.0,6.9,100,0.02,,OVC,0.86,WeatherDisplay:10.37,2013-06-11 13:17:00,
2013-06-11 09:19:00,59.4,59.4,29.71,SSE,168,2.3,4.6,100,0.02,CLR,OVC,0.86,WeatherDisplay:10.37,2013-06-11 13:19:00,
2013-06-11 09:20:00,59.4,59.4,29.71,South,174,2.0,7.0,100,0.00,CLR,OVC,0.86,WeatherDisplay:10.37,2013-06-11 13:20:00,
2013-06-11 09:22:00,59.5,59.5,29.70,SSE,157,6.2,8.1,100,0.02,CLR,OVC,0.86,WeatherDisplay:10.37,2013-06-11 13:22:00,
2013-06-11 09:23:00,59.5,59.5,29.70,SSE,157,4.0,6.0,100,0.02,CLR,OVC,0.86,WeatherDisplay:10.37,2013-06-11 13:23:00,
2013-06-11 09:24:00,59.5,59.5,29.70,SSE,148,5.9,10.4,100,0.02,CLR,OVC,0.86,WeatherDisplay:10.37,2013-06-11 13:24:00,
2013-06-11 09:25:00,59.5,59.5,29.70,SSE,149,4.8,8.1,100,0.02,CLR,OVC,0.86,WeatherDisplay:10.37,2013-06-11 13:25:00,
2013-06-11 09:27:00,59.5,59.5,29.70,SSE,151,4.6,6.9,100,0.02,CLR,OVC,0.86,WeatherDisplay:10.37,2013-06-11 13:27:00,
2013-06-11 09:28:00,59.5,59.5,29.70,SSE,151,5.4,6.9,100,0.02,CLR,OVC,0.86,WeatherDisplay:10.37,2013-06-11 13:28:00,
2013-06-11 09:29:00,59.6,59.6,29.70,SSE,151,2.9,6.9,100,0.02,CLR,OVC,0.86,WeatherDisplay:10.37,2013-06-11 13:29:00,
2013-06-11 09:30:00,59.6,59.6,29.70,SSE,151,2.5,3.5,100,0.02,CLR,OVC,0.86,WeatherDisplay:10.37,2013-06-11 13:30:00,
2013-06-11 09:31:00,59.6,59.6,29.70,SSE,151,2.3,5.0,100,0.02,CLR,OVC,0.86,WeatherDisplay:10.37,2013-06-11 13:31:00,
2013-06-11 09:32:00,59.7,59.7,29.70,SSE,151,3.7,6.9,100,0.02,CLR,OVC,0.86,WeatherDisplay:10.37,2013-06-11 13:32:00,
2013-06-11 09:33:00,59.7,59.7,29.70,SSE,151,2.8,4.6,100,0.02,CLR,OVC,0.86,WeatherDisplay:10.37,2013-06-11 13:33:00,
2013-06-11 09:34:00,59.8,59.8,29.70,SSE,151,2.9,5.0,100,0.03,RA,OVC,0.87,WeatherDisplay:10.37,2013-06-11 13:34:00,
2013-06-11 09:36:00,59.8,59.8,29.70,SSE,154,4.9,9.2,100,0.03,RA,OVC,0.87,WeatherDisplay:10.37,2013-06-11 13:36:00,
2013-06-11 09:37:00,59.8,59.8,29.70,SSE,155,5.9,9.2,100,0.02,RA,OVC,0.87,WeatherDisplay:10.37,2013-06-11 13:37:00,
2013-06-11 09:39:00,59.8,59.8,29.70,SSE,155,2.9,5.8,100,0.02,RA,OVC,0.87,WeatherDisplay:10.37,2013-06-11 13:39:00,
2013-06-11 09:40:00,59.9,59.9,29.70,SSE,155,3.5,4.6,100,0.02,RA,OVC,0.87,WeatherDisplay:10.37,2013-06-11 13:40:00,
2013-06-11 09:41:00,59.9,59.9,29.70,SSE,155,3.2,3.5,100,0.02,RA,OVC,0.87,WeatherDisplay:10.37,2013-06-11 13:41:00,
2013-06-11 09:42:00,59.9,59.9,29.70,SSE,155,3.7,3.7,100,0.02,RA,OVC,0.87,WeatherDisplay:10.37,2013-06-11 13:42:00,
2013-06-11 09:44:00,60.0,60.0,29.70,SSE,155,3.3,5.0,100,0.02,,OVC,0.87,WeatherDisplay:10.37,2013-06-11 13:44:00,
2013-06-11 09:45:00,60.1,60.1,29.69,SSE,156,5.4,8.1,100,0.02,,OVC,0.88,WeatherDisplay:10.37,2013-06-11 13:45:00,
2013-06-11 09:46:00,60.1,60.1,29.69,SSE,156,3.6,8.1,100,0.03,RA,OVC,0.88,WeatherDisplay:10.37,2013-06-11 13:46:00,
2013-06-11 09:47:00,60.2,60.2,29.69,SSE,156,3.5,4.6,100,0.03,RA,OVC,0.88,WeatherDisplay:10.37,2013-06-11 13:47:00,
2013-06-11 09:49:00,60.2,60.2,29.69,SSW,207,7.1,10.4,100,0.03,RA,OVC,0.88,WeatherDisplay:10.37,2013-06-11 13:49:00,
2013-06-11 09:51:00,60.2,60.2,29.69,South,176,5.2,8.1,100,0.03,RA,OVC,0.88,WeatherDisplay:10.37,2013-06-11 13:51:00,
2013-06-11 09:52:00,60.2,60.2,29.69,South,178,4.3,7.0,100,0.03,RA,OVC,0.88,WeatherDisplay:10.37,2013-06-11 13:52:00,
2013-06-11 09:54:00,60.2,60.2,29.69,South,181,3.5,8.0,100,0.04,RA,OVC,0.89,WeatherDisplay:10.37,2013-06-11 13:54:00,
2013-06-11 09:56:00,60.2,60.2,29.69,South,178,4.8,8.1,100,0.04,RA,OVC,0.89,WeatherDisplay:10.37,2013-06-11 13:56:00,
2013-06-11 09:57:00,60.3,60.3,29.69,South,178,2.0,6.9,100,0.04,RA,OVC,0.89,WeatherDisplay:10.37,2013-06-11 13:57:00,
2013-06-11 10:00:00,60.3,60.3,29.69,South,178,3.3,4.6,100,0.04,RA,OVC,0.89,WeatherDisplay:10.37,2013-06-11 14:00:00,
2013-06-11 10:02:00,60.3,60.3,29.69,South,178,2.4,5.8,100,0.04,RA,OVC,0.89,WeatherDisplay:10.37,2013-06-11 14:02:00,
2013-06-11 10:03:00,60.4,60.4,29.69,South,178,2.3,3.5,100,0.05,RA,OVC,0.90,WeatherDisplay:10.37,2013-06-11 14:03:00,
2013-06-11 10:05:00,60.4,60.4,29.69,South,178,3.9,5.8,100,0.05,RA,OVC,0.90,WeatherDisplay:10.37,2013-06-11 14:05:00,
2013-06-11 10:07:00,60.4,60.4,29.69,SE,144,6.2,9.2,100,0.04,RA,OVC,0.90,WeatherDisplay:10.37,2013-06-11 14:07:00,
2013-06-11 10:08:00,60.5,60.5,29.69,SE,144,1.2,4.6,100,0.04,RA,OVC,0.90,WeatherDisplay:10.37,2013-06-11 14:08:00,
2013-06-11 10:10:00,60.6,60.6,29.69,SE,144,3.0,5.0,100,0.04,RA,OVC,0.90,WeatherDisplay:10.37,2013-06-11 14:10:00,
2013-06-11 10:12:00,60.5,60.5,29.69,SE,144,3.2,3.5,100,0.05,RA,OVC,0.91,WeatherDisplay:10.37,2013-06-11 14:12:00,
2013-06-11 10:13:00,60.5,60.5,29.69,SE,144,1.9,3.5,100,0.05,RA,OVC,0.91,WeatherDisplay:10.37,2013-06-11 14:13:00,
2013-06-11 10:15:00,60.5,60.5,29.69,SE,144,2.0,3.5,100,0.05,RA,OVC,0.91,WeatherDisplay:10.37,2013-06-11 14:15:00,
2013-06-11 10:17:00,60.6,60.6,29.69,SE,144,1.2,4.6,100,0.05,RA,OVC,0.91,WeatherDisplay:10.37,2013-06-11 14:17:00,
2013-06-11 10:18:00,60.6,60.6,29.69,SE,144,0.7,3.0,100,0.05,RA,OVC,0.91,WeatherDisplay:10.37,2013-06-11 14:18:00,
2013-06-11 10:19:00,60.6,60.6,29.69,SE,144,1.5,3.5,100,0.05,RA,OVC,0.91,WeatherDisplay:10.37,2013-06-11 14:19:00,
2013-06-11 10:20:00,60.6,60.6,29.69,SE,144,2.2,5.0,100,0.05,RA,OVC,0.91,WeatherDisplay:10.37,2013-06-11 14:20:00,
2013-06-11 10:22:00,60.7,60.7,29.69,SE,144,2.9,4.6,100,0.05,,OVC,0.91,WeatherDisplay:10.37,2013-06-11 14:22:00,
2013-06-11 10:23:00,60.7,60.7,29.68,SE,144,3.0,3.5,100,0.05,CLR,OVC,0.91,WeatherDisplay:10.37,2013-06-11 14:23:00,
2013-06-11 10:24:00,60.7,60.7,29.69,SE,144,2.1,3.5,100,0.05,CLR,OVC,0.91,WeatherDisplay:10.37,2013-06-11 14:24:00,
2013-06-11 10:25:00,60.7,60.7,29.69,SE,144,1.7,3.5,100,0.05,CLR,OVC,0.91,WeatherDisplay:10.37,2013-06-11 14:25:00,
2013-06-11 10:27:00,60.8,60.8,29.68,SE,144,0.4,3.5,100,0.05,CLR,OVC,0.91,WeatherDisplay:10.37,2013-06-11 14:27:00,
2013-06-11 10:28:00,60.8,60.8,29.69,SE,144,0.5,1.2,100,0.05,CLR,OVC,0.91,WeatherDisplay:10.37,2013-06-11 14:28:00,
2013-06-11 10:29:00,60.9,60.9,29.68,SE,144,1.2,2.3,100,0.05,CLR,OVC,0.91,WeatherDisplay:10.37,2013-06-11 14:29:00,
2013-06-11 10:30:00,60.9,60.9,29.69,SE,144,0.9,2.3,100,0.05,CLR,OVC,0.91,WeatherDisplay:10.37,2013-06-11 14:30:00,
2013-06-11 10:33:00,61.0,61.0,29.68,SE,144,1.7,3.5,100,0.05,CLR,OVC,0.91,WeatherDisplay:10.37,2013-06-11 14:33:00,
2013-06-11 10:35:00,61.1,61.1,29.69,SE,144,3.0,4.6,100,0.04,CLR,OVC,0.91,WeatherDisplay:10.37,2013-06-11 14:35:00,
2013-06-11 10:38:00,61.3,61.3,29.68,SE,144,0.8,2.3,100,0.05,RA,OVC,0.92,WeatherDisplay:10.37,2013-06-11 14:38:00,
2013-06-11 10:39:00,61.3,61.3,29.68,SE,144,0.5,2.3,100,0.05,RA,OVC,0.92,WeatherDisplay:10.37,2013-06-11 14:39:00,
2013-06-11 10:40:00,61.3,61.3,29.68,SE,144,0.8,2.0,100,0.05,RA,OVC,0.92,WeatherDisplay:10.37,2013-06-11 14:40:00,
2013-06-11 10:44:00,61.3,61.3,29.68,SE,144,2.4,3.5,100,0.05,RA,OVC,0.92,WeatherDisplay:10.37,2013-06-11 14:44:00,
2013-06-11 10:45:00,61.3,61.3,29.68,SE,144,2.9,3.5,100,0.05,RA,OVC,0.92,WeatherDisplay:10.37,2013-06-11 14:45:00,
2013-06-11 10:49:00,61.2,61.2,29.68,SE,144,1.0,2.3,100,0.04,,OVC,0.92,WeatherDisplay:10.37,2013-06-11 14:49:00,
2013-06-11 10:50:00,61.2,61.2,29.68,SE,144,2.1,3.5,100,0.04,CLR,OVC,0.92,WeatherDisplay:10.37,2013-06-11 14:50:00,
2013-06-11 10:51:00,61.2,61.2,29.68,SE,144,1.0,3.5,100,0.04,CLR,OVC,0.92,WeatherDisplay:10.37,2013-06-11 14:51:00,
2013-06-11 10:54:00,61.3,61.3,29.67,SE,144,0.0,0.0,100,0.04,CLR,OVC,0.92,WeatherDisplay:10.37,2013-06-11 14:54:00,
2013-06-11 10:55:00,61.3,61.3,29.67,SE,144,0.4,1.2,100,0.03,CLR,OVC,0.92,WeatherDisplay:10.37,2013-06-11 14:55:00,
2013-06-11 10:57:00,61.4,61.4,29.68,SE,144,1.7,3.5,100,0.03,CLR,OVC,0.92,WeatherDisplay:10.37,2013-06-11 14:57:00,
2013-06-11 10:59:00,61.5,61.5,29.67,SE,144,0.9,4.0,100,0.03,CLR,OVC,0.92,WeatherDisplay:10.37,2013-06-11 14:59:00,
2013-06-11 11:00:00,61.6,61.6,29.67,SE,144,2.9,3.5,100,0.03,CLR,OVC,0.92,WeatherDisplay:10.37,2013-06-11 15:00:00,
2013-06-11 11:01:00,61.6,61.6,29.67,SE,144,2.1,4.0,100,0.03,CLR,OVC,0.92,WeatherDisplay:10.37,2013-06-11 15:01:00,
2013-06-11 11:02:00,61.7,61.7,29.67,SE,144,2.6,5.8,100,0.03,CLR,OVC,0.92,WeatherDisplay:10.37,2013-06-11 15:02:00,
2013-06-11 11:04:00,61.8,61.8,29.67,SE,144,2.9,5.0,100,0.02,CLR,OVC,0.92,WeatherDisplay:10.37,2013-06-11 15:04:00,
2013-06-11 11:05:00,61.8,61.8,29.67,SE,144,3.5,4.6,100,0.02,CLR,OVC,0.92,WeatherDisplay:10.37,2013-06-11 15:05:00,
2013-06-11 11:06:00,61.8,61.8,29.67,SE,144,2.9,4.6,100,0.02,CLR,OVC,0.92,WeatherDisplay:10.37,2013-06-11 15:06:00,
2013-06-11 11:08:00,61.9,61.9,29.67,SE,144,2.0,3.5,100,0.02,CLR,OVC,0.92,WeatherDisplay:10.37,2013-06-11 15:08:00,
2013-06-11 11:09:00,61.9,61.9,29.67,SE,144,2.7,4.0,100,0.02,CLR,OVC,0.92,WeatherDisplay:10.37,2013-06-11 15:09:00,
2013-06-11 11:10:00,62.0,62.0,29.67,SE,144,3.1,4.6,100,0.02,CLR,OVC,0.92,WeatherDisplay:10.37,2013-06-11 15:10:00,
2013-06-11 11:11:00,62.0,62.0,29.67,SE,144,2.9,3.5,100,0.01,CLR,OVC,0.92,WeatherDisplay:10.37,2013-06-11 15:11:00,
2013-06-11 11:13:00,62.0,62.0,29.67,SE,144,2.4,3.5,100,0.01,CLR,OVC,0.92,WeatherDisplay:10.37,2013-06-11 15:13:00,
2013-06-11 11:14:00,62.1,62.1,29.67,SE,144,2.0,3.5,100,0.01,CLR,OVC,0.92,WeatherDisplay:10.37,2013-06-11 15:14:00,
2013-06-11 11:15:00,62.2,62.2,29.67,SE,144,0.4,2.3,100,0.01,CLR,OVC,0.92,WeatherDisplay:10.37,2013-06-11 15:15:00,
2013-06-11 11:17:00,62.3,62.3,29.67,SE,144,0.7,3.0,100,0.01,CLR,OVC,0.92,WeatherDisplay:10.37,2013-06-11 15:17:00,
2013-06-11 11:18:00,62.4,62.4,29.67,SE,144,1.9,3.5,100,0.01,CLR,OVC,0.92,WeatherDisplay:10.37,2013-06-11 15:18:00,
2013-06-11 11:19:00,62.4,62.4,29.67,SE,144,3.0,5.0,100,0.01,CLR,OVC,0.92,WeatherDisplay:10.37,2013-06-11 15:19:00,
2013-06-11 11:21:00,62.4,62.4,29.67,SE,144,2.2,4.0,100,0.01,CLR,OVC,0.92,WeatherDisplay:10.37,2013-06-11 15:21:00,
2013-06-11 11:22:00,62.4,62.4,29.67,SE,144,2.6,3.5,100,0.01,CLR,OVC,0.92,WeatherDisplay:10.37,2013-06-11 15:22:00,
2013-06-11 11:23:00,62.4,62.4,29.67,SE,144,2.3,3.5,100,0.01,CLR,OVC,0.92,WeatherDisplay:10.37,2013-06-11 15:23:00,
2013-06-11 11:24:00,62.5,62.5,29.67,SE,144,0.2,3.5,100,0.01,CLR,OVC,0.92,WeatherDisplay:10.37,2013-06-11 15:24:00,
2013-06-11 11:26:00,62.6,62.6,29.67,SE,144,1.4,3.5,100,0.01,CLR,OVC,0.92,WeatherDisplay:10.37,2013-06-11 15:26:00,
2013-06-11 11:27:00,62.6,62.6,29.67,SE,144,2.0,3.5,100,0.01,CLR,OVC,0.92,WeatherDisplay:10.37,2013-06-11 15:27:00,
2013-06-11 11:28:00,62.7,62.7,29.67,SE,144,0.9,3.5,100,0.01,CLR,OVC,0.92,WeatherDisplay:10.37,2013-06-11 15:28:00,
2013-06-11 11:29:00,62.7,62.7,29.67,South,169,1.2,2.3,100,0.01,CLR,OVC,0.92,WeatherDisplay:10.37,2013-06-11 15:29:00,
2013-06-11 11:32:00,62.6,62.6,29.67,South,169,0.9,3.5,100,0.01,CLR,OVC,0.92,WeatherDisplay:10.37,2013-06-11 15:32:00,
2013-06-11 11:33:00,62.6,62.6,29.66,South,169,0.9,3.5,100,0.01,CLR,OVC,0.92,WeatherDisplay:10.37,2013-06-11 15:33:00,
2013-06-11 11:34:00,62.6,62.6,29.67,South,169,0.5,3.5,100,0.01,CLR,OVC,0.92,WeatherDisplay:10.37,2013-06-11 15:34:00,
2013-06-11 11:37:00,62.5,62.5,29.66,South,169,0.0,0.0,100,0.01,CLR,OVC,0.92,WeatherDisplay:10.37,2013-06-11 15:37:00,
2013-06-11 11:38:00,62.5,62.5,29.66,South,169,0.0,0.0,100,0.00,CLR,OVC,0.92,WeatherDisplay:10.37,2013-06-11 15:38:00,
2013-06-11 11:39:00,62.5,62.5,29.66,South,169,0.0,0.0,100,0.00,CLR,OVC,0.92,WeatherDisplay:10.37,2013-06-11 15:39:00,
2013-06-11 11:42:00,62.4,62.4,29.67,South,169,0.1,1.2,100,0.01,RA,OVC,0.93,WeatherDisplay:10.37,2013-06-11 15:42:00,
2013-06-11 11:43:00,62.4,62.4,29.67,South,169,0.5,2.3,100,0.01,RA,OVC,0.93,WeatherDisplay:10.37,2013-06-11 15:43:00,
2013-06-11 11:44:00,62.4,62.4,29.67,South,169,0.3,2.3,100,0.01,RA,OVC,0.93,WeatherDisplay:10.37,2013-06-11 15:44:00,
2013-06-11 11:47:00,62.3,62.3,29.67,South,169,0.3,2.3,100,0.01,RA,OVC,0.93,WeatherDisplay:10.37,2013-06-11 15:47:00,
2013-06-11 11:49:00,62.3,62.3,29.67,South,169,0.1,1.2,100,0.01,RA,OVC,0.94,WeatherDisplay:10.37,2013-06-11 15:49:00,
2013-06-11 11:50:00,62.2,62.2,29.67,SSE,166,0.1,1.2,100,0.02,RA,OVC,0.94,WeatherDisplay:10.37,2013-06-11 15:50:00,
2013-06-11 11:53:00,62.1,62.1,29.66,South,186,1.4,2.3,100,0.02,RA,OVC,0.94,WeatherDisplay:10.37,2013-06-11 15:53:00,
2013-06-11 11:54:00,62.1,62.1,29.66,South,186,2.1,3.5,100,0.03,RA,OVC,0.95,WeatherDisplay:10.37,2013-06-11 15:54:00,
2013-06-11 11:55:00,62.1,62.1,29.66,South,186,1.8,3.5,100,0.03,RA,OVC,0.95,WeatherDisplay:10.37,2013-06-11 15:55:00,
2013-06-11 11:58:00,61.9,61.9,29.66,South,186,1.2,2.3,100,0.04,RA,OVC,0.96,WeatherDisplay:10.37,2013-06-11 15:58:00,
2013-06-11 11:59:00,61.8,61.8,29.66,South,186,1.0,2.3,100,0.04,RA,OVC,0.96,WeatherDisplay:10.37,2013-06-11 15:59:00,
2013-06-11 12:00:00,61.8,61.8,29.66,South,186,0.9,2.3,100,0.04,RA,OVC,0.96,WeatherDisplay:10.37,2013-06-11 16:00:00,
2013-06-11 12:03:00,61.7,61.7,29.66,South,186,0.9,2.3,100,0.05,RA,OVC,0.97,WeatherDisplay:10.37,2013-06-11 16:03:00,
2013-06-11 12:04:00,61.6,61.6,29.66,South,186,1.0,2.3,100,0.05,RA,OVC,0.97,WeatherDisplay:10.37,2013-06-11 16:04:00,
2013-06-11 12:05:00,61.6,61.6,29.66,South,186,1.5,2.3,100,0.05,RA,OVC,0.98,WeatherDisplay:10.37,2013-06-11 16:05:00,
2013-06-11 12:08:00,61.4,61.4,29.66,South,186,0.8,2.3,100,0.06,RA,OVC,0.99,WeatherDisplay:10.37,2013-06-11 16:08:00,
2013-06-11 12:09:00,61.4,61.4,29.66,South,186,0.2,2.3,100,0.07,RA,OVC,0.99,WeatherDisplay:10.37,2013-06-11 16:09:00,
2013-06-11 12:10:00,61.4,61.4,29.66,South,186,0.9,1.2,100,0.07,RA,OVC,0.99,WeatherDisplay:10.37,2013-06-11 16:10:00,
2013-06-11 12:11:00,61.4,61.4,29.66,South,186,0.7,2.3,100,0.07,RA,OVC,0.99,WeatherDisplay:10.37,2013-06-11 16:11:00,
2013-06-11 12:13:00,61.3,61.3,29.66,South,186,0.0,0.0,100,0.08,RA,OVC,1.00,WeatherDisplay:10.37,2013-06-11 16:13:00,
2013-06-11 12:14:00,61.3,61.3,29.66,South,186,0.1,1.0,100,0.08,RA,OVC,1.00,WeatherDisplay:10.37,2013-06-11 16:14:00,
2013-06-11 12:15:00,61.2,61.2,29.66,South,186,0.7,1.2,100,0.08,RA,OVC,1.01,WeatherDisplay:10.37,2013-06-11 16:15:00,
2013-06-11 12:17:00,61.2,61.2,29.66,South,186,0.0,1.2,100,0.09,RA,OVC,1.01,WeatherDisplay:10.37,2013-06-11 16:17:00,
2013-06-11 12:19:00,61.2,61.2,29.66,South,186,0.0,0.0,100,0.09,RA,OVC,1.02,WeatherDisplay:10.37,2013-06-11 16:19:00,
2013-06-11 12:20:00,61.1,61.1,29.65,South,186,0.0,1.2,100,0.10,RA,OVC,1.02,WeatherDisplay:10.37,2013-06-11 16:20:00,
2013-06-11 12:23:00,61.2,61.2,29.65,South,186,0.0,0.0,100,0.10,RA,OVC,1.03,WeatherDisplay:10.37,2013-06-11 16:23:00,
2013-06-11 12:24:00,61.2,61.2,29.65,South,186,0.0,0.0,100,0.11,RA,OVC,1.03,WeatherDisplay:10.37,2013-06-11 16:24:00,
2013-06-11 12:25:00,61.2,61.2,29.65,South,186,0.0,1.0,100,0.00,RA,OVC,1.03,WeatherDisplay:10.37,2013-06-11 16:25:00,
2013-06-11 12:26:00,61.3,61.3,29.65,South,186,0.0,0.0,100,0.11,RA,OVC,1.03,WeatherDisplay:10.37,2013-06-11 16:26:00,
2013-06-11 12:28:00,61.4,61.4,29.65,South,186,0.0,0.0,100,0.12,RA,OVC,1.04,WeatherDisplay:10.37,2013-06-11 16:28:00,
2013-06-11 12:29:00,61.5,61.5,29.65,South,186,0.0,0.0,100,0.12,RA,OVC,1.04,WeatherDisplay:10.37,2013-06-11 16:29:00,
2013-06-11 12:30:00,61.6,61.6,29.65,South,186,0.0,0.0,100,0.12,RA,OVC,1.04,WeatherDisplay:10.37,2013-06-11 16:30:00,
2013-06-11 12:31:00,61.6,61.6,29.65,South,186,0.0,0.0,100,0.12,RA,OVC,1.04,WeatherDisplay:10.37,2013-06-11 16:31:00,
2013-06-11 12:33:00,61.9,61.9,29.65,South,186,0.3,1.2,100,0.13,RA,OVC,1.05,WeatherDisplay:10.37,2013-06-11 16:33:00,
2013-06-11 12:34:00,62.0,62.0,29.65,South,186,1.0,2.0,100,0.13,RA,OVC,1.05,WeatherDisplay:10.37,2013-06-11 16:34:00,
2013-06-11 12:35:00,62.0,62.0,29.65,South,186,1.3,3.5,100,0.13,RA,OVC,1.05,WeatherDisplay:10.37,2013-06-11 16:35:00,
2013-06-11 12:36:00,62.0,62.0,29.65,South,186,1.5,3.5,100,0.13,RA,OVC,1.05,WeatherDisplay:10.37,2013-06-11 16:36:00,
2013-06-11 12:38:00,62.1,62.1,29.65,South,186,2.0,3.5,100,0.14,RA,OVC,1.06,WeatherDisplay:10.37,2013-06-11 16:38:00,
2013-06-11 12:39:00,62.0,62.0,29.65,South,186,1.5,3.5,100,0.14,RA,OVC,1.06,WeatherDisplay:10.37,2013-06-11 16:39:00,
2013-06-11 12:40:00,62.0,62.0,29.65,South,186,1.3,2.3,100,0.13,RA,OVC,1.06,WeatherDisplay:10.37,2013-06-11 16:40:00,
2013-06-11 12:41:00,62.0,62.0,29.65,South,186,0.1,2.3,100,0.13,RA,OVC,1.06,WeatherDisplay:10.37,2013-06-11 16:41:00,
2013-06-11 12:43:00,62.1,62.1,29.65,South,186,0.3,2.0,100,0.13,RA,OVC,1.06,WeatherDisplay:10.37,2013-06-11 16:43:00,
2013-06-11 12:45:00,62.2,62.2,29.65,South,186,2.3,3.0,100,0.13,RA,OVC,1.07,WeatherDisplay:10.37,2013-06-11 16:45:00,
2013-06-11 12:46:00,62.2,62.2,29.65,South,186,3.6,4.6,100,0.14,RA,OVC,1.07,WeatherDisplay:10.37,2013-06-11 16:46:00,
2013-06-11 12:47:00,62.3,62.3,29.65,South,189,4.2,5.8,100,0.14,RA,OVC,1.07,WeatherDisplay:10.37,2013-06-11 16:47:00,
2013-06-11 12:48:00,62.3,62.3,29.64,South,189,2.8,5.8,100,0.14,RA,OVC,1.07,WeatherDisplay:10.37,2013-06-11 16:48:00,
2013-06-11 12:50:00,62.3,62.3,29.64,South,189,2.4,3.5,100,0.13,RA,OVC,1.07,WeatherDisplay:10.37,2013-06-11 16:50:00,
2013-06-11 12:51:00,62.4,62.4,29.64,South,187,3.7,5.0,100,0.13,RA,OVC,1.07,WeatherDisplay:10.37,2013-06-11 16:51:00,
2013-06-11 12:52:00,62.4,62.4,29.64,South,189,4.0,5.8,100,0.13,RA,OVC,1.07,WeatherDisplay:10.37,2013-06-11 16:52:00,
2013-06-11 12:54:00,62.5,62.5,29.64,South,176,2.2,4.6,100,0.12,RA,OVC,1.07,WeatherDisplay:10.37,2013-06-11 16:54:00,
2013-06-11 12:56:00,62.6,62.6,29.64,SSW,192,5.9,9.2,100,0.12,,OVC,1.07,WeatherDisplay:10.37,2013-06-11 16:56:00,
2013-06-11 12:57:00,62.7,62.7,29.64,South,181,4.3,5.8,100,0.12,CLR,OVC,1.07,WeatherDisplay:10.37,2013-06-11 16:57:00,
2013-06-11 13:00:00,63.0,63.0,29.64,SSE,155,4.3,8.1,100,0.11,CLR,OVC,1.07,WeatherDisplay:10.37,2013-06-11 17:00:00,
2013-06-11 13:01:00,63.0,63.0,29.63,SSE,153,3.9,8.1,100,0.11,CLR,OVC,1.07,WeatherDisplay:10.37,2013-06-11 17:01:00,
2013-06-11 13:02:00,63.1,63.1,29.64,SSE,154,3.4,4.6,100,0.10,CLR,OVC,1.07,WeatherDisplay:10.37,2013-06-11 17:02:00,
2013-06-11 13:05:00,63.3,63.3,29.64,SSW,212,3.5,7.0,100,0.10,CLR,OVC,1.07,WeatherDisplay:10.37,2013-06-11 17:05:00,
2013-06-11 13:06:00,63.3,63.3,29.64,SSW,198,5.7,9.0,100,0.09,CLR,OVC,1.07,WeatherDisplay:10.37,2013-06-11 17:06:00,
2013-06-11 13:07:00,63.3,63.3,29.63,SW,217,5.2,9.2,100,0.09,CLR,OVC,1.07,WeatherDisplay:10.37,2013-06-11 17:07:00,
2013-06-11 13:10:00,63.2,63.2,29.63,South,183,5.0,8.1,100,0.08,CLR,OVC,1.07,WeatherDisplay:10.37,2013-06-11 17:10:00,
2013-06-11 13:11:00,63.2,63.2,29.63,SSW,205,4.8,7.0,100,0.08,CLR,OVC,1.07,WeatherDisplay:10.37,2013-06-11 17:11:00,
2013-06-11 13:12:00,63.3,63.3,29.63,SSW,194,6.0,9.2,100,0.08,CLR,OVC,1.07,WeatherDisplay:10.37,2013-06-11 17:12:00,
2013-06-11 13:16:00,63.1,62.8,29.63,SSW,210,4.9,6.9,99,0.07,CLR,OVC,1.07,WeatherDisplay:10.37,2013-06-11 17:16:00,
2013-06-11 13:17:00,63.0,62.7,29.63,SW,216,5.6,8.0,99,0.06,CLR,OVC,1.07,WeatherDisplay:10.37,2013-06-11 17:17:00,
2013-06-11 13:18:00,62.9,62.6,29.63,SSW,212,6.6,9.2,99,0.06,CLR,OVC,1.07,WeatherDisplay:10.37,2013-06-11 17:18:00,
2013-06-11 13:22:00,62.8,62.8,29.63,SSW,197,4.1,6.0,100,0.05,CLR,OVC,1.07,WeatherDisplay:10.37,2013-06-11 17:22:00,
2013-06-11 13:23:00,62.7,62.4,29.63,SSW,198,4.7,5.8,99,0.05,CLR,OVC,1.07,WeatherDisplay:10.37,2013-06-11 17:23:00,
2013-06-11 13:27:00,62.6,62.3,29.63,South,173,3.9,6.0,99,0.04,CLR,OVC,1.07,WeatherDisplay:10.37,2013-06-11 17:27:00,
2013-06-11 13:28:00,62.6,62.3,29.63,South,171,5.2,6.9,99,0.03,CLR,OVC,1.07,WeatherDisplay:10.37,2013-06-11 17:28:00,
2013-06-11 13:32:00,62.4,62.1,29.63,SSE,167,4.7,5.8,99,0.03,CLR,OVC,1.07,WeatherDisplay:10.37,2013-06-11 17:32:00,
2013-06-11 13:33:00,62.3,62.0,29.62,SSE,167,4.0,4.6,99,0.02,CLR,OVC,1.07,WeatherDisplay:10.37,2013-06-11 17:33:00,
2013-06-11 13:37:00,62.3,62.0,29.62,SSE,167,3.3,4.6,99,0.02,CLR,OVC,1.07,WeatherDisplay:10.37,2013-06-11 17:37:00,
2013-06-11 13:38:00,62.3,62.0,29.63,SSE,167,3.4,4.6,99,0.02,CLR,OVC,1.07,WeatherDisplay:10.37,2013-06-11 17:38:00,
2013-06-11 13:42:00,62.2,61.9,29.63,SSE,168,5.0,6.9,99,0.01,CLR,OVC,1.07,WeatherDisplay:10.37,2013-06-11 17:42:00,
2013-06-11 13:43:00,62.2,61.9,29.63,SSE,168,5.3,6.9,99,0.01,CLR,OVC,1.07,WeatherDisplay:10.37,2013-06-11 17:43:00,
2013-06-11 13:44:00,62.1,61.8,29.62,SSE,168,3.8,6.9,99,0.01,CLR,OVC,1.07,WeatherDisplay:10.37,2013-06-11 17:44:00,
2013-06-11 13:48:00,62.0,61.7,29.62,SSE,168,3.7,3.7,99,0.00,CLR,OVC,1.07,WeatherDisplay:10.37,2013-06-11 17:48:00,
2013-06-11 13:49:00,62.1,61.8,29.62,SSE,168,2.5,3.5,99,0.00,CLR,OVC,1.07,WeatherDisplay:10.37,2013-06-11 17:49:00,
2013-06-11 13:53:00,62.0,61.7,29.62,SSE,168,2.7,4.0,99,0.00,CLR,OVC,1.07,WeatherDisplay:10.37,2013-06-11 17:53:00,
2013-06-11 13:54:00,62.1,61.8,29.62,SSE,168,2.9,3.5,99,0.00,CLR,OVC,1.07,WeatherDisplay:10.37,2013-06-11 17:54:00,
2013-06-11 13:58:00,62.1,61.8,29.62,SSE,168,0.3,3.5,99,0.00,CLR,OVC,1.07,WeatherDisplay:10.37,2013-06-11 17:58:00,
2013-06-11 13:59:00,62.1,61.8,29.62,SSE,168,0.5,2.3,99,0.00,CLR,OVC,1.07,WeatherDisplay:10.37,2013-06-11 17:59:00,
2013-06-11 14:03:00,62.3,62.0,29.61,SSE,168,0.9,2.3,99,0.00,CLR,OVC,1.07,WeatherDisplay:10.37,2013-06-11 18:03:00,
2013-06-11 14:04:00,62.3,62.0,29.61,SSE,168,1.1,2.3,99,0.00,CLR,OVC,1.07,WeatherDisplay:10.37,2013-06-11 18:04:00,
2013-06-11 14:08:00,62.5,62.2,29.61,SSE,168,0.1,1.2,99,0.00,CLR,OVC,1.07,WeatherDisplay:10.37,2013-06-11 18:08:00,
2013-06-11 14:09:00,62.5,62.2,29.61,SSE,168,0.0,0.0,99,0.00,CLR,OVC,1.07,WeatherDisplay:10.37,2013-06-11 18:09:00,
2013-06-11 14:13:00,62.8,62.5,29.61,SSE,168,0.0,0.0,99,0.00,CLR,OVC,1.07,WeatherDisplay:10.37,2013-06-11 18:13:00,
2013-06-11 14:14:00,62.8,62.5,29.61,SSE,168,0.0,0.0,99,0.00,CLR,OVC,1.07,WeatherDisplay:10.37,2013-06-11 18:14:00,
2013-06-11 14:18:00,63.1,62.8,29.61,SSE,168,2.7,3.5,99,0.00,CLR,OVC,1.07,WeatherDisplay:10.37,2013-06-11 18:18:00,
2013-06-11 14:19:00,63.1,62.8,29.61,SSE,168,2.7,3.5,99,0.00,CLR,OVC,1.07,WeatherDisplay:10.37,2013-06-11 18:19:00,
2013-06-11 14:20:00,63.1,62.8,29.61,SSE,168,2.4,3.5,99,0.00,CLR,OVC,1.07,WeatherDisplay:10.37,2013-06-11 18:20:00,
2013-06-11 14:24:00,63.3,63.0,29.61,SSE,166,1.9,3.5,99,0.00,CLR,OVC,1.07,WeatherDisplay:10.37,2013-06-11 18:24:00,
2013-06-11 14:25:00,63.3,63.0,29.61,SSE,167,2.0,4.0,99,0.00,CLR,OVC,1.07,WeatherDisplay:10.37,2013-06-11 18:25:00,
2013-06-11 14:29:00,63.4,63.1,29.60,SSE,162,2.5,3.5,99,0.00,CLR,OVC,1.07,WeatherDisplay:10.37,2013-06-11 18:29:00,
2013-06-11 14:30:00,63.5,63.2,29.61,SSE,162,2.7,3.5,99,0.00,CLR,OVC,1.07,WeatherDisplay:10.37,2013-06-11 18:30:00,
2013-06-11 14:34:00,63.9,63.6,29.60,SSE,160,0.6,4.0,99,0.00,CLR,OVC,1.07,WeatherDisplay:10.37,2013-06-11 18:34:00,
2013-06-11 14:35:00,63.8,63.5,29.60,SSE,161,1.0,4.0,99,0.00,CLR,OVC,1.07,WeatherDisplay:10.37,2013-06-11 18:35:00,
2013-06-11 14:40:00,64.2,63.9,29.60,SSE,153,1.0,7.0,99,0.00,CLR,OVC,1.07,WeatherDisplay:10.37,2013-06-11 18:40:00,
2013-06-11 14:41:00,64.3,64.0,29.60,SE,138,2.9,4.6,99,0.00,CLR,OVC,1.07,WeatherDisplay:10.37,2013-06-11 18:41:00,
2013-06-11 14:45:00,64.4,63.8,29.60,SE,138,2.0,3.5,98,0.00,CLR,OVC,1.07,WeatherDisplay:10.37,2013-06-11 18:45:00,
2013-06-11 14:46:00,64.4,63.8,29.60,SE,138,2.6,3.5,98,0.00,CLR,OVC,1.07,WeatherDisplay:10.37,2013-06-11 18:46:00,
2013-06-11 14:50:00,64.6,64.0,29.59,SE,138,0.8,2.3,98,0.00,CLR,OVC,1.07,WeatherDisplay:10.37,2013-06-11 18:50:00,
2013-06-11 14:51:00,64.6,64.0,29.60,SE,138,0.5,1.2,98,0.00,CLR,OVC,1.07,WeatherDisplay:10.37,2013-06-11 18:51:00,
2013-06-11 14:55:00,64.9,64.0,29.59,SE,138,1.9,3.5,97,0.00,CLR,OVC,1.07,WeatherDisplay:10.37,2013-06-11 18:55:00,
2013-06-11 14:56:00,64.9,64.0,29.59,SE,138,2.1,3.5,97,0.00,CLR,OVC,1.07,WeatherDisplay:10.37,2013-06-11 18:56:00,
2013-06-11 14:57:00,64.9,64.0,29.59,SE,138,2.0,3.5,97,0.00,CLR,OVC,1.07,WeatherDisplay:10.37,2013-06-11 18:57:00,
2013-06-11 15:01:00,65.0,64.1,29.59,SE,137,2.5,3.5,97,0.00,CLR,OVC,1.07,WeatherDisplay:10.37,2013-06-11 19:01:00,
2013-06-11 15:02:00,64.9,63.7,29.59,SE,131,4.1,5.0,96,0.00,CLR,OVC,1.07,WeatherDisplay:10.37,2013-06-11 19:02:00,
2013-06-11 15:03:00,64.8,63.6,29.59,SE,129,4.2,4.6,96,0.00,CLR,OVC,1.07,WeatherDisplay:10.37,2013-06-11 19:03:00,
2013-06-11 15:06:00,64.8,63.6,29.59,SE,128,2.3,3.5,96,0.00,CLR,OVC,1.07,WeatherDisplay:10.37,2013-06-11 19:06:00,
2013-06-11 15:07:00,64.8,63.6,29.59,SE,128,2.0,3.5,96,0.00,CLR,OVC,1.07,WeatherDisplay:10.37,2013-06-11 19:07:00,
2013-06-11 15:08:00,64.8,63.6,29.59,SE,128,1.9,3.5,96,0.00,CLR,OVC,1.07,WeatherDisplay:10.37,2013-06-11 19:08:00,
2013-06-11 15:12:00,65.0,63.8,29.58,SE,128,1.2,3.5,96,0.00,CLR,OVC,1.07,WeatherDisplay:10.37,2013-06-11 19:12:00,
2013-06-11 15:13:00,65.1,63.9,29.58,SE,128,0.5,2.3,96,0.00,CLR,OVC,1.07,WeatherDisplay:10.37,2013-06-11 19:13:00,
2013-06-11 15:17:00,65.3,64.1,29.58,SE,128,2.0,2.3,96,0.00,CLR,OVC,1.07,WeatherDisplay:10.37,2013-06-11 19:17:00,
2013-06-11 15:18:00,65.3,64.1,29.58,SE,128,1.9,2.3,96,0.00,CLR,OVC,1.07,WeatherDisplay:10.37,2013-06-11 19:18:00,
2013-06-11 15:19:00,65.3,63.8,29.58,SE,128,2.5,4.0,95,0.00,CLR,OVC,1.07,WeatherDisplay:10.37,2013-06-11 19:19:00,
2013-06-11 15:23:00,65.2,63.7,29.58,SE,127,2.1,3.5,95,0.00,CLR,OVC,1.07,WeatherDisplay:10.37,2013-06-11 19:23:00,
2013-06-11 15:24:00,65.2,63.4,29.58,SE,127,2.4,3.5,94,0.00,CLR,OVC,1.07,WeatherDisplay:10.37,2013-06-11 19:24:00,
2013-06-11 15:28:00,65.2,63.7,29.58,SE,126,1.6,4.0,95,0.00,CLR,OVC,1.07,WeatherDisplay:10.37,2013-06-11 19:28:00,
2013-06-11 15:29:00,65.3,63.8,29.58,ESE,120,3.6,3.6,95,0.00,CLR,OVC,1.07,WeatherDisplay:10.37,2013-06-11 19:29:00,
2013-06-11 15:33:00,65.3,63.8,29.58,ESE,119,1.8,3.5,95,0.00,CLR,OVC,1.07,WeatherDisplay:10.37,2013-06-11 19:33:00,
2013-06-11 15:35:00,65.3,63.8,29.58,ESE,115,3.5,4.0,95,0.00,CLR,OVC,1.07,WeatherDisplay:10.37,2013-06-11 19:35:00,
2013-06-11 15:38:00,65.2,63.7,29.58,ESE,113,2.1,3.5,95,0.00,CLR,OVC,1.07,WeatherDisplay:10.37,2013-06-11 19:38:00,
2013-06-11 15:39:00,65.2,63.4,29.58,ESE,113,1.8,3.5,94,0.00,CLR,OVC,1.07,WeatherDisplay:10.37,2013-06-11 19:39:00,
2013-06-11 15:40:00,65.2,63.7,29.58,ESE,113,2.6,3.5,95,0.00,CLR,OVC,1.07,WeatherDisplay:10.37,2013-06-11 19:40:00,
2013-06-11 15:43:00,65.2,63.7,29.58,ESE,113,1.8,3.5,95,0.00,CLR,OVC,1.07,WeatherDisplay:10.37,2013-06-11 19:43:00,
2013-06-11 15:44:00,65.1,63.3,29.58,ESE,113,1.8,3.5,94,0.00,CLR,OVC,1.07,WeatherDisplay:10.37,2013-06-11 19:44:00,
2013-06-11 15:45:00,65.1,63.6,29.57,ESE,113,1.9,3.5,95,0.00,CLR,OVC,1.07,WeatherDisplay:10.37,2013-06-11 19:45:00,
2013-06-11 15:49:00,65.0,63.2,29.57,ESE,113,3.0,3.5,94,0.00,CLR,OVC,1.07,WeatherDisplay:10.37,2013-06-11 19:49:00,
2013-06-11 15:50:00,64.9,63.1,29.57,ESE,113,3.0,4.6,94,0.00,CLR,OVC,1.07,WeatherDisplay:10.37,2013-06-11 19:50:00,
2013-06-11 15:54:00,64.9,63.4,29.57,ESE,113,2.2,3.5,95,0.00,CLR,OVC,1.07,WeatherDisplay:10.37,2013-06-11 19:54:00,
2013-06-11 15:55:00,64.9,63.1,29.57,ESE,113,1.8,3.5,94,0.00,CLR,OVC,1.07,WeatherDisplay:10.37,2013-06-11 19:55:00,
2013-06-11 15:59:00,64.8,63.3,29.57,ESE,113,2.7,3.5,95,0.00,CLR,OVC,1.07,WeatherDisplay:10.37,2013-06-11 19:59:00,
2013-06-11 16:00:00,64.8,63.3,29.57,ESE,113,2.0,3.5,95,0.00,CLR,OVC,1.07,WeatherDisplay:10.37,2013-06-11 20:00:00,
2013-06-11 16:04:00,64.8,63.0,29.57,ESE,113,1.6,4.0,94,0.00,CLR,OVC,1.07,WeatherDisplay:10.37,2013-06-11 20:04:00,
2013-06-11 16:05:00,64.8,63.3,29.57,ESE,113,2.0,4.0,95,0.00,CLR,OVC,1.07,WeatherDisplay:10.37,2013-06-11 20:05:00,
2013-06-11 16:09:00,64.7,63.2,29.57,ESE,108,3.3,4.0,95,0.00,CLR,OVC,1.07,WeatherDisplay:10.37,2013-06-11 20:09:00,
2013-06-11 16:10:00,64.7,63.2,29.57,ESE,105,3.4,5.0,95,0.00,CLR,OVC,1.07,WeatherDisplay:10.37,2013-06-11 20:10:00,
2013-06-11 16:11:00,64.7,63.2,29.57,East,87,4.4,6.0,95,0.00,CLR,OVC,1.07,WeatherDisplay:10.37,2013-06-11 20:11:00,
2013-06-11 16:15:00,64.6,63.1,29.57,ENE,59,4.3,5.8,95,0.00,CLR,OVC,1.07,WeatherDisplay:10.37,2013-06-11 20:15:00,
2013-06-11 16:16:00,64.6,63.1,29.57,ENE,59,3.8,4.6,95,0.00,CLR,OVC,1.07,WeatherDisplay:10.37,2013-06-11 20:16:00,
2013-06-11 16:20:00,64.5,63.3,29.57,ENE,57,3.9,5.0,96,0.00,CLR,OVC,1.07,WeatherDisplay:10.37,2013-06-11 20:20:00,
2013-06-11 16:21:00,64.5,63.0,29.57,NE,54,3.7,4.6,95,0.00,CLR,OVC,1.07,WeatherDisplay:10.37,2013-06-11 20:21:00,
2013-06-11 16:22:00,64.4,63.2,29.57,NE,47,4.7,5.8,96,0.00,CLR,OVC,1.07,WeatherDisplay:10.37,2013-06-11 20:22:00,
2013-06-11 16:25:00,64.4,63.2,29.57,NE,47,2.9,4.6,96,0.01,RA,OVC,1.08,WeatherDisplay:10.37,2013-06-11 20:25:00,
2013-06-11 16:27:00,64.3,63.1,29.57,NE,47,3.2,4.0,96,0.01,RA,OVC,1.08,WeatherDisplay:10.37,2013-06-11 20:27:00,
2013-06-11 16:30:00,64.1,62.9,29.57,NE,46,3.9,4.6,96,0.01,RA,OVC,1.08,WeatherDisplay:10.37,2013-06-11 20:30:00,
2013-06-11 16:31:00,64.1,63.2,29.57,NE,45,3.9,5.0,97,0.02,RA,OVC,1.09,WeatherDisplay:10.37,2013-06-11 20:31:00,
2013-06-11 16:32:00,64.0,63.1,29.57,NE,41,4.6,5.8,97,0.02,RA,OVC,1.09,WeatherDisplay:10.37,2013-06-11 20:32:00,
2013-06-11 16:33:00,64.0,63.1,29.57,NE,41,4.2,5.8,97,0.02,RA,OVC,1.09,WeatherDisplay:10.37,2013-06-11 20:33:00,
2013-06-11 16:35:00,63.7,62.8,29.57,NE,40,2.2,3.5,97,0.02,RA,OVC,1.09,WeatherDisplay:10.37,2013-06-11 20:35:00,
2013-06-11 16:37:00,63.6,62.7,29.57,NNE,29,4.3,5.0,97,0.02,RA,OVC,1.09,WeatherDisplay:10.37,2013-06-11 20:37:00,
2013-06-11 16:38:00,63.6,62.7,29.57,NNE,25,5.4,6.9,97,0.02,RA,OVC,1.09,WeatherDisplay:10.37,2013-06-11 20:38:00,
2013-06-11 16:40:00,63.4,62.5,29.56,NNE,12,4.9,6.9,97,0.03,RA,OVC,1.10,WeatherDisplay:10.37,2013-06-11 20:40:00,
2013-06-11 16:42:00,63.4,62.8,29.57,NNE,12,3.8,5.8,98,0.03,RA,OVC,1.10,WeatherDisplay:10.37,2013-06-11 20:42:00,
2013-06-11 16:43:00,63.3,62.7,29.57,NNE,12,3.3,4.6,98,0.03,RA,OVC,1.10,WeatherDisplay:10.37,2013-06-11 20:43:00,
2013-06-11 16:46:00,63.2,62.6,29.57,NNE,12,2.1,3.5,98,0.03,RA,OVC,1.10,WeatherDisplay:10.37,2013-06-11 20:46:00,
2013-06-11 16:47:00,63.2,62.6,29.57,NNE,12,2.0,3.5,98,0.04,RA,OVC,1.11,WeatherDisplay:10.37,2013-06-11 20:47:00,
2013-06-11 16:48:00,63.2,62.6,29.57,NNE,12,3.1,5.0,98,0.04,RA,OVC,1.11,WeatherDisplay:10.37,2013-06-11 20:48:00,
2013-06-11 16:51:00,63.1,62.8,29.56,NNE,12,2.9,4.0,99,0.04,RA,OVC,1.11,WeatherDisplay:10.37,2013-06-11 20:51:00,
2013-06-11 16:52:00,63.1,62.5,29.56,NNE,12,2.8,4.6,98,0.04,RA,OVC,1.11,WeatherDisplay:10.37,2013-06-11 20:52:00,
2013-06-11 16:53:00,63.1,62.8,29.56,NNE,12,2.5,4.6,99,0.04,RA,OVC,1.11,WeatherDisplay:10.37,2013-06-11 20:53:00,
2013-06-11 16:57:00,62.9,62.6,29.56,NNE,12,0.0,0.0,99,0.05,RA,OVC,1.12,WeatherDisplay:10.37,2013-06-11 20:57:00,
2013-06-11 16:58:00,62.9,62.6,29.56,NNE,12,0.0,0.0,99,0.05,RA,OVC,1.12,WeatherDisplay:10.37,2013-06-11 20:58:00,
2013-06-11 17:02:00,62.9,62.6,29.56,NNE,12,1.5,2.3,99,0.06,RA,OVC,1.13,WeatherDisplay:10.37,2013-06-11 21:02:00,
2013-06-11 17:03:00,62.9,62.6,29.55,NNE,12,1.8,3.5,99,0.06,RA,OVC,1.13,WeatherDisplay:10.37,2013-06-11 21:03:00,
2013-06-11 17:07:00,62.8,62.5,29.55,NNE,12,2.8,3.5,99,0.07,RA,OVC,1.14,WeatherDisplay:10.37,2013-06-11 21:07:00,
2013-06-11 17:08:00,62.9,62.6,29.55,NNE,12,2.9,3.5,99,0.07,RA,OVC,1.14,WeatherDisplay:10.37,2013-06-11 21:08:00,
2013-06-11 17:09:00,62.8,62.5,29.56,NNE,12,2.8,3.5,99,0.07,RA,OVC,1.14,WeatherDisplay:10.37,2013-06-11 21:09:00,
2013-06-11 17:12:00,62.8,62.5,29.56,NNE,12,3.0,3.5,99,0.08,RA,OVC,1.15,WeatherDisplay:10.37,2013-06-11 21:12:00,
2013-06-11 17:13:00,62.8,62.5,29.55,NNE,12,2.7,3.5,99,0.08,RA,OVC,1.15,WeatherDisplay:10.37,2013-06-11 21:13:00,
2013-06-11 17:14:00,62.8,62.5,29.55,NNE,12,1.3,2.3,99,0.08,RA,OVC,1.15,WeatherDisplay:10.37,2013-06-11 21:14:00,
2013-06-11 17:18:00,62.8,62.5,29.55,NNE,12,2.3,3.5,99,0.08,RA,OVC,1.15,WeatherDisplay:10.37,2013-06-11 21:18:00,
2013-06-11 17:19:00,62.7,62.4,29.55,NNE,12,2.4,3.5,99,0.08,RA,OVC,1.16,WeatherDisplay:10.37,2013-06-11 21:19:00,
2013-06-11 17:23:00,62.8,62.5,29.55,NNE,12,1.8,3.5,99,0.09,RA,OVC,1.16,WeatherDisplay:10.37,2013-06-11 21:23:00,
2013-06-11 17:24:00,62.8,62.5,29.55,NNE,12,1.8,3.5,99,0.08,RA,OVC,1.16,WeatherDisplay:10.37,2013-06-11 21:24:00,
2013-06-11 17:28:00,62.8,62.8,29.55,NNE,12,2.4,3.5,100,0.09,RA,OVC,1.17,WeatherDisplay:10.37,2013-06-11 21:28:00,
2013-06-11 17:29:00,62.8,62.8,29.55,NNE,12,2.7,3.5,100,0.09,RA,OVC,1.17,WeatherDisplay:10.37,2013-06-11 21:29:00,
2013-06-11 17:30:00,62.8,62.5,29.55,NNE,12,2.7,3.5,99,0.09,RA,OVC,1.17,WeatherDisplay:10.37,2013-06-11 21:30:00,
2013-06-11 17:33:00,62.8,62.8,29.54,NNE,12,2.3,3.5,100,0.08,RA,OVC,1.17,WeatherDisplay:10.37,2013-06-11 21:33:00,
2013-06-11 17:34:00,62.8,62.8,29.54,NNE,12,2.2,3.5,100,0.09,RA,OVC,1.18,WeatherDisplay:10.37,2013-06-11 21:34:00,
2013-06-11 17:35:00,62.9,62.9,29.54,NNE,12,2.3,3.5,100,0.09,RA,OVC,1.18,WeatherDisplay:10.37,2013-06-11 21:35:00,
2013-06-11 17:38:00,62.9,62.9,29.54,NNE,12,2.4,3.5,100,0.09,RA,OVC,1.18,WeatherDisplay:10.37,2013-06-11 21:38:00,
2013-06-11 17:39:00,62.9,62.9,29.54,NNE,12,2.3,3.5,100,0.08,RA,OVC,1.18,WeatherDisplay:10.37,2013-06-11 21:39:00,
2013-06-11 17:40:00,62.9,62.9,29.54,NNE,12,2.4,3.5,100,0.08,RA,OVC,1.18,WeatherDisplay:10.37,2013-06-11 21:40:00,
2013-06-11 17:44:00,63.0,63.0,29.54,NNE,12,2.9,3.5,100,0.09,RA,OVC,1.19,WeatherDisplay:10.37,2013-06-11 21:44:00,
2013-06-11 17:45:00,63.0,63.0,29.54,NNE,12,2.8,3.5,100,0.09,RA,OVC,1.19,WeatherDisplay:10.37,2013-06-11 21:45:00,
2013-06-11 17:46:00,63.0,63.0,29.54,NNE,12,2.4,3.5,100,0.09,RA,OVC,1.19,WeatherDisplay:10.37,2013-06-11 21:46:00,
2013-06-11 17:49:00,63.0,63.0,29.54,NNE,12,1.6,3.5,100,0.08,RA,OVC,1.19,WeatherDisplay:10.37,2013-06-11 21:49:00,
2013-06-11 17:50:00,63.0,63.0,29.54,NNE,12,1.3,3.5,100,0.08,RA,OVC,1.19,WeatherDisplay:10.37,2013-06-11 21:50:00,
2013-06-11 17:52:00,62.9,62.9,29.54,NNE,12,1.6,2.3,100,0.09,RA,OVC,1.20,WeatherDisplay:10.37,2013-06-11 21:52:00,
2013-06-11 17:54:00,62.8,62.8,29.54,NNE,12,2.2,3.5,100,0.08,RA,OVC,1.20,WeatherDisplay:10.37,2013-06-11 21:54:00,
2013-06-11 17:55:00,62.8,62.8,29.54,NNE,12,2.1,3.5,100,0.08,RA,OVC,1.20,WeatherDisplay:10.37,2013-06-11 21:55:00,
2013-06-11 17:57:00,62.7,62.7,29.53,NNE,12,1.6,3.5,100,0.08,RA,OVC,1.20,WeatherDisplay:10.37,2013-06-11 21:57:00,
2013-06-11 17:59:00,62.7,62.7,29.54,NNE,12,1.7,3.5,100,0.07,RA,OVC,1.20,WeatherDisplay:10.37,2013-06-11 21:59:00,
2013-06-11 18:00:00,62.7,62.7,29.54,NNE,12,1.5,3.5,100,0.07,RA,OVC,1.20,WeatherDisplay:10.37,2013-06-11 22:00:00,
2013-06-11 18:02:00,62.6,62.6,29.54,NNE,12,0.4,2.3,100,0.08,RA,OVC,1.21,WeatherDisplay:10.37,2013-06-11 22:02:00,
2013-06-11 18:04:00,62.6,62.6,29.54,NNE,12,0.0,0.0,100,0.08,RA,OVC,1.21,WeatherDisplay:10.37,2013-06-11 22:04:00,
2013-06-11 18:05:00,62.6,62.6,29.54,NNE,12,0.0,0.0,100,0.07,RA,OVC,1.21,WeatherDisplay:10.37,2013-06-11 22:05:00,
2013-06-11 18:08:00,62.6,62.6,29.54,NNE,12,0.0,1.2,100,0.07,RA,OVC,1.21,WeatherDisplay:10.37,2013-06-11 22:08:00,
2013-06-11 18:10:00,62.6,62.6,29.54,NNE,12,0.0,1.0,100,0.00,RA,OVC,1.21,WeatherDisplay:10.37,2013-06-11 22:10:00,
2013-06-11 18:11:00,62.6,62.6,29.54,NNE,12,0.1,1.2,100,0.07,RA,OVC,1.21,WeatherDisplay:10.37,2013-06-11 22:11:00,
2013-06-11 18:13:00,62.6,62.6,29.54,NNE,12,1.1,2.3,100,0.06,,OVC,1.21,WeatherDisplay:10.37,2013-06-11 22:13:00,
2013-06-11 18:15:00,62.6,62.6,29.54,NNE,12,2.0,3.0,100,0.06,CLR,OVC,1.22,WeatherDisplay:10.37,2013-06-11 22:15:00,
2013-06-11 18:16:00,62.6,62.6,29.54,NNE,12,2.5,3.5,100,0.07,RA,OVC,1.22,WeatherDisplay:10.37,2013-06-11 22:16:00,
2013-06-11 18:18:00,62.7,62.7,29.54,NNE,12,3.0,3.5,100,0.07,RA,OVC,1.22,WeatherDisplay:10.37,2013-06-11 22:18:00,
2013-06-11 18:20:00,62.8,62.8,29.54,NNE,12,2.1,3.5,100,0.06,RA,OVC,1.22,WeatherDisplay:10.37,2013-06-11 22:20:00,
2013-06-11 18:21:00,62.8,62.8,29.54,NNE,12,1.9,3.5,100,0.06,RA,OVC,1.22,WeatherDisplay:10.37,2013-06-11 22:21:00,
2013-06-11 18:23:00,62.8,62.8,29.54,NNE,12,1.6,2.3,100,0.06,RA,OVC,1.22,WeatherDisplay:10.37,2013-06-11 22:23:00,
2013-06-11 18:25:00,62.8,62.8,29.54,NNE,12,2.7,3.5,100,0.06,,OVC,1.22,WeatherDisplay:10.37,2013-06-11 22:25:00,
2013-06-11 18:26:00,62.8,62.8,29.55,NNE,12,2.3,3.5,100,0.05,,OVC,1.22,WeatherDisplay:10.37,2013-06-11 22:26:00,
2013-06-11 18:28:00,62.8,62.8,29.55,NNE,12,2.6,3.5,100,0.05,CLR,OVC,1.23,WeatherDisplay:10.37,2013-06-11 22:28:00,
2013-06-11 18:30:00,62.7,62.7,29.54,NNE,12,2.9,3.5,100,0.06,RA,OVC,1.23,WeatherDisplay:10.37,2013-06-11 22:30:00,
2013-06-11 18:31:00,62.7,62.7,29.54,NNE,12,2.4,3.5,100,0.06,RA,OVC,1.23,WeatherDisplay:10.37,2013-06-11 22:31:00,
2013-06-11 18:33:00,62.7,62.7,29.55,NNE,12,2.9,3.5,100,0.06,RA,OVC,1.23,WeatherDisplay:10.37,2013-06-11 22:33:00,
2013-06-11 18:34:00,62.7,62.7,29.55,NNE,12,3.2,4.0,100,0.05,RA,OVC,1.23,WeatherDisplay:10.37,2013-06-11 22:34:00,
2013-06-11 18:35:00,62.7,62.7,29.55,NNE,12,3.3,3.5,100,0.05,RA,OVC,1.23,WeatherDisplay:10.37,2013-06-11 22:35:00,
2013-06-11 18:37:00,62.6,62.6,29.55,NNE,12,3.4,4.0,100,0.05,RA,OVC,1.23,WeatherDisplay:10.37,2013-06-11 22:37:00,
2013-06-11 18:38:00,62.6,62.6,29.55,NNE,12,2.9,3.5,100,0.05,RA,OVC,1.23,WeatherDisplay:10.37,2013-06-11 22:38:00,
2013-06-11 18:39:00,62.6,62.6,29.55,NNE,12,2.9,3.5,100,0.05,,OVC,1.23,WeatherDisplay:10.37,2013-06-11 22:39:00,
2013-06-11 18:40:00,62.6,62.6,29.55,NNE,12,3.3,4.0,100,0.05,,OVC,1.23,WeatherDisplay:10.37,2013-06-11 22:40:00,
2013-06-11 18:41:00,62.6,62.6,29.55,NNE,12,3.6,4.6,100,0.05,CLR,OVC,1.23,WeatherDisplay:10.37,2013-06-11 22:41:00,
2013-06-11 18:42:00,62.6,62.6,29.55,NNE,12,3.6,5.0,100,0.04,CLR,OVC,1.23,WeatherDisplay:10.37,2013-06-11 22:42:00,
2013-06-11 18:43:00,62.6,62.6,29.55,NNE,12,3.6,4.6,100,0.04,CLR,OVC,1.24,WeatherDisplay:10.37,2013-06-11 22:43:00,
2013-06-11 18:44:00,62.6,62.6,29.55,NNE,12,4.0,5.0,100,0.05,RA,OVC,1.24,WeatherDisplay:10.37,2013-06-11 22:44:00,
2013-06-11 18:46:00,62.5,62.5,29.55,NNE,12,5.1,5.8,100,0.05,RA,OVC,1.24,WeatherDisplay:10.37,2013-06-11 22:46:00,
2013-06-11 18:47:00,62.5,62.5,29.55,North,10,5.6,6.9,100,0.05,RA,OVC,1.24,WeatherDisplay:10.37,2013-06-11 22:47:00,
2013-06-11 18:48:00,62.4,62.4,29.55,North,9,5.4,6.9,100,0.05,RA,OVC,1.24,WeatherDisplay:10.37,2013-06-11 22:48:00,
2013-06-11 18:49:00,62.4,62.4,29.55,North,8,4.5,6.9,100,0.05,RA,OVC,1.24,WeatherDisplay:10.37,2013-06-11 22:49:00,
2013-06-11 18:51:00,62.3,62.3,29.55,North,4,6.1,8.1,100,0.05,RA,OVC,1.24,WeatherDisplay:10.37,2013-06-11 22:51:00,
2013-06-11 18:52:00,62.3,62.3,29.55,North,4,5.8,8.1,100,0.04,RA,OVC,1.24,WeatherDisplay:10.37,2013-06-11 22:52:00,
2013-06-11 18:54:00,62.1,62.1,29.55,North,4,3.8,5.8,100,0.04,RA,OVC,1.24,WeatherDisplay:10.37,2013-06-11 22:54:00,
2013-06-11 18:56:00,62.0,62.0,29.55,North,4,4.5,5.8,100,0.04,CLR,OVC,1.24,WeatherDisplay:10.37,2013-06-11 22:56:00,
2013-06-11 18:57:00,62.0,62.0,29.55,North,4,4.4,5.8,100,0.04,CLR,OVC,1.24,WeatherDisplay:10.37,2013-06-11 22:57:00,
2013-06-11 18:59:00,61.9,61.9,29.55,North,4,2.4,3.5,100,0.05,RA,OVC,1.25,WeatherDisplay:10.37,2013-06-11 22:59:00,
2013-06-11 19:02:00,61.8,61.8,29.55,North,4,2.4,3.5,100,0.05,RA,OVC,1.25,WeatherDisplay:10.37,2013-06-11 23:02:00,
2013-06-11 19:04:00,61.8,61.8,29.55,North,4,1.3,3.5,100,0.04,RA,OVC,1.25,WeatherDisplay:10.37,2013-06-11 23:04:00,
2013-06-11 19:05:00,61.8,61.8,29.54,North,4,0.6,3.5,100,0.04,RA,OVC,1.25,WeatherDisplay:10.37,2013-06-11 23:05:00,
2013-06-11 19:07:00,61.8,61.8,29.55,North,4,1.4,2.3,100,0.04,RA,OVC,1.25,WeatherDisplay:10.37,2013-06-11 23:07:00,
2013-06-11 19:08:00,61.7,61.7,29.55,North,4,1.1,2.3,100,0.04,,OVC,1.25,WeatherDisplay:10.37,2013-06-11 23:08:00,
2013-06-11 19:09:00,61.7,61.7,29.55,North,4,2.3,3.5,100,0.04,,OVC,1.25,WeatherDisplay:10.37,2013-06-11 23:09:00,
2013-06-11 19:10:00,61.7,61.7,29.55,North,3,2.5,3.5,100,0.04,,OVC,1.25,WeatherDisplay:10.37,2013-06-11 23:10:00,
2013-06-11 19:12:00,61.7,61.7,29.55,North,4,1.8,3.5,100,0.05,RA,OVC,1.26,WeatherDisplay:10.37,2013-06-11 23:12:00,
2013-06-11 19:13:00,61.7,61.7,29.55,North,4,1.9,3.5,100,0.05,RA,OVC,1.26,WeatherDisplay:10.37,2013-06-11 23:13:00,
2013-06-11 19:14:00,61.7,61.7,29.55,North,4,1.0,3.5,100,0.05,RA,OVC,1.26,WeatherDisplay:10.37,2013-06-11 23:14:00,
2013-06-11 19:15:00,61.7,61.7,29.55,North,4,0.2,2.3,100,0.04,RA,OVC,1.26,WeatherDisplay:10.37,2013-06-11 23:15:00,
2013-06-11 19:17:00,61.7,61.7,29.54,North,4,0.0,1.2,100,0.04,RA,OVC,1.26,WeatherDisplay:10.37,2013-06-11 23:17:00,
2013-06-11 19:18:00,61.7,61.7,29.55,North,4,0.0,1.2,100,0.04,RA,OVC,1.26,WeatherDisplay:10.37,2013-06-11 23:18:00,
2013-06-11 19:19:00,61.7,61.7,29.54,North,4,1.1,1.2,100,0.04,RA,OVC,1.26,WeatherDisplay:10.37,2013-06-11 23:19:00,
2013-06-11 19:20:00,61.7,61.7,29.54,North,4,0.9,2.3,100,0.04,RA,OVC,1.27,WeatherDisplay:10.37,2013-06-11 23:20:00,
2013-06-11 19:23:00,61.7,61.7,29.54,North,4,0.0,0.0,100,0.05,RA,OVC,1.27,WeatherDisplay:10.37,2013-06-11 23:23:00,
2013-06-11 19:24:00,61.7,61.7,29.55,North,4,0.0,0.0,100,0.05,RA,OVC,1.27,WeatherDisplay:10.37,2013-06-11 23:24:00,
2013-06-11 19:25:00,61.7,61.7,29.55,North,4,0.0,0.0,100,0.05,RA,OVC,1.27,WeatherDisplay:10.37,2013-06-11 23:25:00,
2013-06-11 19:28:00,61.6,61.6,29.55,North,4,0.0,0.0,100,0.05,RA,OVC,1.27,WeatherDisplay:10.37,2013-06-11 23:28:00,
2013-06-11 19:29:00,61.6,61.6,29.55,North,4,0.8,2.0,100,0.04,RA,OVC,1.27,WeatherDisplay:10.37,2013-06-11 23:29:00,
2013-06-11 19:30:00,61.6,61.6,29.55,North,4,1.7,2.3,100,0.04,RA,OVC,1.27,WeatherDisplay:10.37,2013-06-11 23:30:00,
2013-06-11 19:33:00,61.7,61.7,29.55,North,4,0.1,1.2,100,0.05,RA,OVC,1.28,WeatherDisplay:10.37,2013-06-11 23:33:00,
2013-06-11 19:34:00,61.7,61.7,29.55,North,3,0.1,1.2,100,0.05,RA,OVC,1.28,WeatherDisplay:10.37,2013-06-11 23:34:00,
2013-06-11 19:35:00,61.7,61.7,29.55,North,4,1.9,3.5,100,0.05,RA,OVC,1.28,WeatherDisplay:10.37,2013-06-11 23:35:00,
2013-06-11 19:36:00,61.7,61.7,29.55,North,3,2.2,3.5,100,0.05,RA,OVC,1.28,WeatherDisplay:10.37,2013-06-11 23:36:00,
2013-06-11 19:38:00,61.7,61.7,29.55,North,4,1.0,2.3,100,0.05,RA,OVC,1.28,WeatherDisplay:10.37,2013-06-11 23:38:00,
2013-06-11 19:39:00,61.7,61.7,29.55,North,4,1.1,2.3,100,0.05,RA,OVC,1.28,WeatherDisplay:10.37,2013-06-11 23:39:00,
2013-06-11 19:40:00,61.7,61.7,29.55,North,4,0.5,2.3,100,0.05,RA,OVC,1.28,WeatherDisplay:10.37,2013-06-11 23:40:00,
2013-06-11 19:42:00,61.7,61.7,29.55,North,4,0.0,0.0,100,0.06,RA,OVC,1.29,WeatherDisplay:10.37,2013-06-11 23:42:00,
2013-06-11 19:43:00,61.7,61.7,29.55,North,4,0.0,0.0,100,0.06,RA,OVC,1.29,WeatherDisplay:10.37,2013-06-11 23:43:00,
2013-06-11 19:44:00,61.7,61.7,29.55,North,4,0.0,0.0,100,0.05,RA,OVC,1.29,WeatherDisplay:10.37,2013-06-11 23:44:00,
2013-06-11 19:45:00,61.7,61.7,29.55,North,4,0.0,0.0,100,0.05,RA,OVC,1.29,WeatherDisplay:10.37,2013-06-11 23:45:00,
2013-06-11 19:47:00,61.7,61.7,29.55,North,3,0.0,0.0,100,0.05,RA,OVC,1.29,WeatherDisplay:10.37,2013-06-11 23:47:00,
2013-06-11 19:49:00,61.7,61.7,29.55,North,3,0.0,0.0,100,0.05,RA,OVC,1.29,WeatherDisplay:10.37,2013-06-11 23:49:00,
2013-06-11 19:50:00,61.7,61.7,29.55,North,4,0.0,0.0,100,0.05,RA,OVC,1.29,WeatherDisplay:10.37,2013-06-11 23:50:00,
2013-06-11 19:51:00,61.7,61.7,29.55,North,4,0.0,0.0,100,0.05,RA,OVC,1.29,WeatherDisplay:10.37,2013-06-11 23:51:00,
2013-06-11 19:52:00,61.7,61.7,29.55,North,4,0.1,1.0,100,0.05,,OVC,1.30,WeatherDisplay:10.37,2013-06-11 23:52:00,
2013-06-11 19:54:00,61.6,61.6,29.55,North,4,0.3,1.2,100,0.06,RA,OVC,1.30,WeatherDisplay:10.37,2013-06-11 23:54:00,
2013-06-11 19:55:00,61.6,61.6,29.55,North,4,0.0,0.0,100,0.06,RA,OVC,1.30,WeatherDisplay:10.37,2013-06-11 23:55:00,
2013-06-11 19:56:00,61.6,61.6,29.55,North,4,0.0,0.0,100,0.06,RA,OVC,1.30,WeatherDisplay:10.37,2013-06-11 23:56:00,
2013-06-11 19:57:00,61.6,61.6,29.55,North,4,0.3,0.0,100,0.06,RA,OVC,1.30,WeatherDisplay:10.37,2013-06-11 23:57:00,
2013-06-11 19:59:00,61.6,61.6,29.55,North,3,0.0,1.2,100,0.05,RA,OVC,1.30,WeatherDisplay:10.37,2013-06-11 23:59:00,
2013-06-11 20:00:00,61.6,61.6,29.55,North,4,0.0,0.0,100,0.05,RA,OVC,1.30,WeatherDisplay:10.37,2013-06-12 00:00:00,
2013-06-11 20:01:00,61.6,61.6,29.55,North,3,0.0,0.0,100,0.05,RA,OVC,1.30,WeatherDisplay:10.37,2013-06-12 00:01:00,
2013-06-11 20:02:00,61.5,61.5,29.55,North,3,0.0,0.0,100,0.06,RA,OVC,1.31,WeatherDisplay:10.37,2013-06-12 00:02:00,
2013-06-11 20:03:00,61.5,61.5,29.54,North,4,0.0,0.0,100,0.06,RA,OVC,1.31,WeatherDisplay:10.37,2013-06-12 00:03:00,
2013-06-11 20:04:00,61.5,61.5,29.55,North,4,0.0,0.0,100,0.06,RA,OVC,1.31,WeatherDisplay:10.37,2013-06-12 00:04:00,
2013-06-11 20:05:00,61.5,61.5,29.55,North,4,0.0,0.0,100,0.06,RA,OVC,1.31,WeatherDisplay:10.37,2013-06-12 00:05:00,
2013-06-11 20:06:00,61.5,61.5,29.55,North,4,0.0,0.0,100,0.06,RA,OVC,1.31,WeatherDisplay:10.37,2013-06-12 00:06:00,
2013-06-11 20:07:00,61.5,61.5,29.55,North,4,0.0,0.0,100,0.06,RA,OVC,1.31,WeatherDisplay:10.37,2013-06-12 00:07:00,
2013-06-11 20:08:00,61.5,61.5,29.54,North,4,0.0,0.0,100,0.06,RA,OVC,1.31,WeatherDisplay:10.37,2013-06-12 00:08:00,
2013-06-11 20:09:00,61.5,61.5,29.55,North,3,0.0,0.0,100,0.06,RA,OVC,1.31,WeatherDisplay:10.37,2013-06-12 00:09:00,
2013-06-11 20:10:00,61.5,61.5,29.55,North,4,0.0,0.0,100,0.06,RA,OVC,1.31,WeatherDisplay:10.37,2013-06-12 00:10:00,
2013-06-11 20:11:00,61.5,61.5,29.55,North,4,0.0,0.0,100,0.05,RA,OVC,1.31,WeatherDisplay:10.37,2013-06-12 00:11:00,
2013-06-11 20:12:00,61.4,61.4,29.55,North,4,0.0,0.0,100,0.05,,OVC,1.32,WeatherDisplay:10.37,2013-06-12 00:12:00,
2013-06-11 20:13:00,61.4,61.4,29.55,North,4,0.0,0.0,100,0.06,RA,OVC,1.32,WeatherDisplay:10.37,2013-06-12 00:13:00,
2013-06-11 20:15:00,61.4,61.4,29.55,North,4,0.0,0.0,100,0.00,RA,OVC,1.32,WeatherDisplay:10.37,2013-06-12 00:15:00,
2013-06-11 20:16:00,61.4,61.4,29.55,North,4,0.0,0.0,100,0.06,RA,OVC,1.32,WeatherDisplay:10.37,2013-06-12 00:16:00,
2013-06-11 20:17:00,61.4,61.4,29.55,North,4,0.0,0.0,100,0.06,RA,OVC,1.32,WeatherDisplay:10.37,2013-06-12 00:17:00,
2013-06-11 20:19:00,61.4,61.4,29.55,North,4,0.0,0.0,100,0.06,RA,OVC,1.32,WeatherDisplay:10.37,2013-06-12 00:19:00,
2013-06-11 20:20:00,61.3,61.3,29.55,North,4,0.0,0.0,100,0.06,RA,OVC,1.32,WeatherDisplay:10.37,2013-06-12 00:20:00,
2013-06-11 20:22:00,61.3,61.3,29.55,North,4,0.0,0.0,100,0.06,RA,OVC,1.33,WeatherDisplay:10.37,2013-06-12 00:22:00,
2013-06-11 20:24:00,61.2,61.2,29.55,North,4,0.0,0.0,100,0.06,RA,OVC,1.33,WeatherDisplay:10.37,2013-06-12 00:24:00,
2013-06-11 20:25:00,61.1,61.1,29.55,North,4,0.0,0.0,100,0.06,RA,OVC,1.33,WeatherDisplay:10.37,2013-06-12 00:25:00,
2013-06-11 20:27:00,61.1,61.1,29.55,North,4,0.0,0.0,100,0.06,RA,OVC,1.33,WeatherDisplay:10.37,2013-06-12 00:27:00,
2013-06-11 20:28:00,61.1,61.1,29.55,North,4,0.0,0.0,100,0.06,RA,OVC,1.33,WeatherDisplay:10.37,2013-06-12 00:28:00,
2013-06-11 20:29:00,61.0,61.0,29.55,North,4,0.0,0.0,100,0.06,RA,OVC,1.33,WeatherDisplay:10.37,2013-06-12 00:29:00,
2013-06-11 20:30:00,61.0,61.0,29.55,North,4,0.0,0.0,100,0.06,RA,OVC,1.33,WeatherDisplay:10.37,2013-06-12 00:30:00,
2013-06-11 20:32:00,61.0,61.0,29.55,North,4,0.0,0.0,100,0.05,,OVC,1.33,WeatherDisplay:10.37,2013-06-12 00:32:00,
2013-06-11 20:33:00,60.9,60.9,29.55,North,4,0.0,0.0,100,0.06,RA,OVC,1.34,WeatherDisplay:10.37,2013-06-12 00:33:00,
2013-06-11 20:35:00,60.9,60.9,29.55,North,4,0.0,0.0,100,0.06,RA,OVC,1.34,WeatherDisplay:10.37,2013-06-12 00:35:00,
2013-06-11 20:36:00,60.9,60.9,29.54,North,4,0.0,0.0,100,0.06,RA,OVC,1.34,WeatherDisplay:10.37,2013-06-12 00:36:00,
2013-06-11 20:37:00,60.9,60.9,29.55,North,4,0.0,0.0,100,0.06,RA,OVC,1.34,WeatherDisplay:10.37,2013-06-12 00:37:00,
2013-06-11 20:38:00,60.8,60.8,29.55,North,4,0.0,0.0,100,0.06,RA,OVC,1.34,WeatherDisplay:10.37,2013-06-12 00:38:00,
2013-06-11 20:40:00,60.8,60.8,29.55,North,4,0.0,0.0,100,0.06,RA,OVC,1.34,WeatherDisplay:10.37,2013-06-12 00:40:00,
2013-06-11 20:41:00,60.8,60.8,29.55,North,4,0.0,0.0,100,0.06,RA,OVC,1.34,WeatherDisplay:10.37,2013-06-12 00:41:00,
2013-06-11 20:42:00,60.8,60.8,29.55,North,4,0.0,0.0,100,0.05,RA,OVC,1.34,WeatherDisplay:10.37,2013-06-12 00:42:00,
2013-06-11 20:43:00,60.8,60.8,29.55,North,4,0.0,0.0,100,0.06,RA,OVC,1.35,WeatherDisplay:10.37,2013-06-12 00:43:00,
2013-06-11 20:45:00,60.7,60.7,29.55,North,4,0.0,0.0,100,0.06,RA,OVC,1.35,WeatherDisplay:10.37,2013-06-12 00:45:00,
2013-06-11 20:46:00,60.7,60.7,29.55,North,4,0.0,0.0,100,0.06,RA,OVC,1.35,WeatherDisplay:10.37,2013-06-12 00:46:00,
2013-06-11 20:47:00,60.7,60.7,29.55,North,4,0.0,0.0,100,0.06,RA,OVC,1.35,WeatherDisplay:10.37,2013-06-12 00:47:00,
2013-06-11 20:48:00,60.7,60.7,29.55,North,4,0.0,0.0,100,0.06,RA,OVC,1.35,WeatherDisplay:10.37,2013-06-12 00:48:00,
2013-06-11 20:50:00,60.7,60.7,29.55,North,4,0.0,0.0,100,0.06,RA,OVC,1.35,WeatherDisplay:10.37,2013-06-12 00:50:00,
2013-06-11 20:52:00,60.6,60.6,29.55,North,3,0.0,0.0,100,0.06,RA,OVC,1.35,WeatherDisplay:10.37,2013-06-12 00:52:00,
2013-06-11 20:53:00,60.6,60.6,29.55,North,3,0.0,0.0,100,0.05,,OVC,1.35,WeatherDisplay:10.37,2013-06-12 00:53:00,
2013-06-11 20:54:00,60.6,60.6,29.55,North,3,0.0,0.0,100,0.06,RA,OVC,1.36,WeatherDisplay:10.37,2013-06-12 00:54:00,
2013-06-11 20:56:00,60.6,60.6,29.55,North,4,0.0,0.0,100,0.06,RA,OVC,1.36,WeatherDisplay:10.37,2013-06-12 00:56:00,
2013-06-11 20:57:00,60.6,60.6,29.55,North,4,0.0,0.0,100,0.06,RA,OVC,1.36,WeatherDisplay:10.37,2013-06-12 00:57:00,
2013-06-11 20:58:00,60.6,60.6,29.55,North,4,0.0,0.0,100,0.06,RA,OVC,1.36,WeatherDisplay:10.37,2013-06-12 00:58:00,
2013-06-11 20:59:00,60.6,60.6,29.55,North,4,0.0,0.0,100,0.06,RA,OVC,1.36,WeatherDisplay:10.37,2013-06-12 00:59:00,
2013-06-11 21:01:00,60.6,60.6,29.55,North,4,0.0,0.0,100,0.06,RA,OVC,1.36,WeatherDisplay:10.37,2013-06-12 01:01:00,
2013-06-11 21:03:00,60.6,60.6,29.55,North,3,0.0,0.0,100,0.05,RA,OVC,1.36,WeatherDisplay:10.37,2013-06-12 01:03:00,
2013-06-11 21:05:00,60.6,60.6,29.55,North,4,0.0,0.0,100,0.06,RA,OVC,1.37,WeatherDisplay:10.37,2013-06-12 01:05:00,
2013-06-11 21:07:00,60.6,60.6,29.55,North,4,0.0,0.0,100,0.06,RA,OVC,1.37,WeatherDisplay:10.37,2013-06-12 01:07:00,
2013-06-11 21:08:00,60.6,60.6,29.55,North,4,0.0,0.0,100,0.06,RA,OVC,1.37,WeatherDisplay:10.37,2013-06-12 01:08:00,
2013-06-11 21:10:00,60.6,60.6,29.55,North,4,0.0,0.0,100,0.06,RA,OVC,1.37,WeatherDisplay:10.37,2013-06-12 01:10:00,
2013-06-11 21:12:00,60.6,60.6,29.55,North,3,0.0,0.0,100,0.06,RA,OVC,1.37,WeatherDisplay:10.37,2013-06-12 01:12:00,
2013-06-11 21:13:00,60.7,60.7,29.56,North,4,0.0,0.0,100,0.05,RA,OVC,1.37,WeatherDisplay:10.37,2013-06-12 01:13:00,
2013-06-11 21:14:00,60.7,60.7,29.56,North,4,0.0,1.0,100,0.05,,OVC,1.37,WeatherDisplay:10.37,2013-06-12 01:14:00,
2013-06-11 21:15:00,60.7,60.7,29.56,North,3,1.0,2.3,100,0.06,RA,OVC,1.38,WeatherDisplay:10.37,2013-06-12 01:15:00,
2013-06-11 21:17:00,60.7,60.7,29.56,North,3,1.7,2.3,100,0.06,RA,OVC,1.38,WeatherDisplay:10.37,2013-06-12 01:17:00,
2013-06-11 21:18:00,60.7,60.7,29.56,North,3,0.6,2.3,100,0.06,RA,OVC,1.38,WeatherDisplay:10.37,2013-06-12 01:18:00,
2013-06-11 21:19:00,60.7,60.7,29.56,North,4,0.4,2.3,100,0.06,RA,OVC,1.38,WeatherDisplay:10.37,2013-06-12 01:19:00,
2013-06-11 21:20:00,60.7,60.7,29.56,North,4,0.0,0.0,100,0.06,RA,OVC,1.38,WeatherDisplay:10.37,2013-06-12 01:20:00,
2013-06-11 21:22:00,60.7,60.7,29.56,North,4,0.0,0.0,100,0.05,RA,OVC,1.38,WeatherDisplay:10.37,2013-06-12 01:22:00,
2013-06-11 21:24:00,60.7,60.7,29.56,North,3,1.1,2.3,100,0.05,RA,OVC,1.38,WeatherDisplay:10.37,2013-06-12 01:24:00,
2013-06-11 21:25:00,60.7,60.7,29.56,North,4,0.6,2.0,100,0.05,,OVC,1.38,WeatherDisplay:10.37,2013-06-12 01:25:00,
2013-06-11 21:27:00,60.6,60.6,29.56,North,4,2.1,3.0,100,0.06,RA,OVC,1.39,WeatherDisplay:10.37,2013-06-12 01:27:00,
2013-06-11 21:29:00,60.6,60.6,29.56,North,4,2.0,4.6,100,0.06,RA,OVC,1.39,WeatherDisplay:10.37,2013-06-12 01:29:00,
2013-06-11 21:30:00,60.6,60.6,29.56,North,4,2.2,3.5,100,0.06,RA,OVC,1.39,WeatherDisplay:10.37,2013-06-12 01:30:00,
2013-06-11 21:32:00,60.7,60.7,29.56,North,3,3.5,4.0,100,0.06,RA,OVC,1.39,WeatherDisplay:10.37,2013-06-12 01:32:00,
2013-06-11 21:34:00,60.7,60.7,29.56,North,4,2.9,3.5,100,0.05,RA,OVC,1.39,WeatherDisplay:10.37,2013-06-12 01:34:00,
2013-06-11 21:35:00,60.7,60.7,29.56,North,4,2.4,3.5,100,0.05,RA,OVC,1.39,WeatherDisplay:10.37,2013-06-12 01:35:00,
2013-06-11 21:38:00,60.7,60.7,29.57,North,3,1.8,3.5,100,0.06,RA,OVC,1.40,WeatherDisplay:10.37,2013-06-12 01:38:00,
2013-06-11 21:39:00,60.7,60.7,29.57,North,4,3.2,3.5,100,0.06,RA,OVC,1.40,WeatherDisplay:10.37,2013-06-12 01:39:00,
2013-06-11 21:40:00,60.7,60.7,29.57,North,4,1.9,3.5,100,0.06,RA,OVC,1.40,WeatherDisplay:10.37,2013-06-12 01:40:00,
2013-06-11 21:41:00,60.7,60.7,29.57,North,4,1.5,3.5,100,0.06,RA,OVC,1.40,WeatherDisplay:10.37,2013-06-12 01:41:00,
2013-06-11 21:43:00,60.7,60.7,29.57,North,3,2.0,3.5,100,0.05,RA,OVC,1.40,WeatherDisplay:10.37,2013-06-12 01:43:00,
2013-06-11 21:44:00,60.7,60.7,29.57,North,4,1.9,3.5,100,0.05,RA,OVC,1.40,WeatherDisplay:10.37,2013-06-12 01:44:00,
2013-06-11 21:45:00,60.7,60.7,29.57,North,3,1.7,3.5,100,0.05,RA,OVC,1.40,WeatherDisplay:10.37,2013-06-12 01:45:00,
2013-06-11 21:46:00,60.7,60.7,29.57,North,4,1.7,3.5,100,0.05,RA,OVC,1.40,WeatherDisplay:10.37,2013-06-12 01:46:00,
2013-06-11 21:49:00,60.6,60.6,29.57,North,4,3.5,4.6,100,0.06,RA,OVC,1.41,WeatherDisplay:10.37,2013-06-12 01:49:00,
2013-06-11 21:50:00,60.6,60.6,29.57,North,4,2.7,4.6,100,0.06,RA,OVC,1.41,WeatherDisplay:10.37,2013-06-12 01:50:00,
2013-06-11 21:52:00,60.6,60.6,29.57,North,4,3.7,4.6,100,0.06,RA,OVC,1.41,WeatherDisplay:10.37,2013-06-12 01:52:00,
2013-06-11 21:54:00,60.6,60.6,29.57,North,4,5.4,6.9,100,0.05,RA,OVC,1.41,WeatherDisplay:10.37,2013-06-12 01:54:00,
2013-06-11 21:55:00,60.6,60.6,29.57,North,4,5.5,6.9,100,0.05,RA,OVC,1.41,WeatherDisplay:10.37,2013-06-12 01:55:00,
2013-06-11 21:57:00,60.5,60.5,29.57,North,4,4.2,8.1,100,0.05,RA,OVC,1.41,WeatherDisplay:10.37,2013-06-12 01:57:00,
2013-06-11 21:59:00,60.5,60.5,29.56,North,4,5.0,6.9,100,0.06,RA,OVC,1.42,WeatherDisplay:10.37,2013-06-12 01:59:00,
2013-06-11 22:00:00,60.4,60.4,29.57,North,4,4.9,6.9,100,0.06,RA,OVC,1.42,WeatherDisplay:10.37,2013-06-12 02:00:00,
2013-06-11 22:02:00,60.4,60.4,29.57,North,4,4.6,4.6,100,0.06,RA,OVC,1.42,WeatherDisplay:10.37,2013-06-12 02:02:00,
2013-06-11 22:04:00,60.4,60.4,29.57,North,4,4.3,5.8,100,0.05,RA,OVC,1.42,WeatherDisplay:10.37,2013-06-12 02:04:00,
2013-06-11 22:05:00,60.4,60.4,29.57,North,4,3.7,4.6,100,0.05,RA,OVC,1.42,WeatherDisplay:10.37,2013-06-12 02:05:00,
2013-06-11 22:08:00,60.3,60.3,29.57,North,4,0.7,3.5,100,0.05,RA,OVC,1.42,WeatherDisplay:10.37,2013-06-12 02:08:00,
2013-06-11 22:09:00,60.3,60.3,29.57,North,4,1.8,3.5,100,0.06,RA,OVC,1.43,WeatherDisplay:10.37,2013-06-12 02:09:00,
2013-06-11 22:10:00,60.3,60.3,29.57,North,4,2.6,3.5,100,0.06,RA,OVC,1.43,WeatherDisplay:10.37,2013-06-12 02:10:00,
2013-06-11 22:11:00,60.3,60.3,29.57,North,4,2.5,3.5,100,0.06,RA,OVC,1.43,WeatherDisplay:10.37,2013-06-12 02:11:00,
2013-06-11 22:13:00,60.3,60.3,29.57,North,4,1.9,3.5,100,0.06,RA,OVC,1.43,WeatherDisplay:10.37,2013-06-12 02:13:00,
2013-06-11 22:14:00,60.3,60.3,29.57,North,4,2.0,4.0,100,0.06,RA,OVC,1.43,WeatherDisplay:10.37,2013-06-12 02:14:00,
2013-06-11 22:15:00,60.3,60.3,29.57,North,4,2.5,3.5,100,0.05,RA,OVC,1.43,WeatherDisplay:10.37,2013-06-12 02:15:00,
2013-06-11 22:16:00,60.3,60.3,29.57,North,4,2.4,3.5,100,0.05,RA,OVC,1.43,WeatherDisplay:10.37,2013-06-12 02:16:00,
2013-06-11 22:18:00,60.3,60.3,29.57,North,4,1.1,3.5,100,0.05,RA,OVC,1.43,WeatherDisplay:10.37,2013-06-12 02:18:00,
2013-06-11 22:19:00,60.3,60.3,29.57,North,4,0.5,2.3,100,0.05,,OVC,1.43,WeatherDisplay:10.37,2013-06-12 02:19:00,
2013-06-11 22:20:00,60.3,60.3,29.57,North,4,1.3,5.0,100,0.06,RA,OVC,1.44,WeatherDisplay:10.37,2013-06-12 02:20:00,
2013-06-11 22:21:00,60.3,60.3,29.57,North,4,2.9,4.6,100,0.06,RA,OVC,1.44,WeatherDisplay:10.37,2013-06-12 02:21:00,
2013-06-11 22:24:00,60.3,60.3,29.57,North,4,2.6,3.5,100,0.06,RA,OVC,1.44,WeatherDisplay:10.37,2013-06-12 02:24:00,
2013-06-11 22:25:00,60.3,60.3,29.57,North,4,2.3,3.5,100,0.06,RA,OVC,1.44,WeatherDisplay:10.37,2013-06-12 02:25:00,
2013-06-11 22:26:00,60.3,60.3,29.57,North,4,3.3,4.6,100,0.05,RA,OVC,1.44,WeatherDisplay:10.37,2013-06-12 02:26:00,
2013-06-11 22:27:00,60.3,60.3,29.57,North,4,3.0,4.6,100,0.05,RA,OVC,1.44,WeatherDisplay:10.37,2013-06-12 02:27:00,
2013-06-11 22:29:00,60.3,60.3,29.57,North,4,2.4,3.5,100,0.05,RA,OVC,1.44,WeatherDisplay:10.37,2013-06-12 02:29:00,
2013-06-11 22:30:00,60.3,60.3,29.57,North,4,2.1,3.5,100,0.06,RA,OVC,1.45,WeatherDisplay:10.37,2013-06-12 02:30:00,
2013-06-11 22:31:00,60.3,60.3,29.57,North,4,2.6,4.0,100,0.06,RA,OVC,1.45,WeatherDisplay:10.37,2013-06-12 02:31:00,
2013-06-11 22:32:00,60.3,60.3,29.57,North,4,3.0,4.6,100,0.06,RA,OVC,1.45,WeatherDisplay:10.37,2013-06-12 02:32:00,
2013-06-11 22:34:00,60.3,60.3,29.57,North,4,1.7,3.5,100,0.06,RA,OVC,1.45,WeatherDisplay:10.37,2013-06-12 02:34:00,
2013-06-11 22:35:00,60.3,60.3,29.57,North,4,1.5,3.5,100,0.06,RA,OVC,1.45,WeatherDisplay:10.37,2013-06-12 02:35:00,
2013-06-11 22:37:00,60.3,60.3,29.57,North,4,1.1,3.5,100,0.06,RA,OVC,1.45,WeatherDisplay:10.37,2013-06-12 02:37:00,
2013-06-11 22:39:00,60.3,60.3,29.57,North,4,1.5,2.3,100,0.05,RA,OVC,1.45,WeatherDisplay:10.37,2013-06-12 02:39:00,
2013-06-11 22:41:00,60.2,60.2,29.57,North,4,2.1,3.5,100,0.05,,OVC,1.45,WeatherDisplay:10.37,2013-06-12 02:41:00,
2013-06-11 22:42:00,60.2,60.2,29.57,North,4,2.1,3.5,100,0.05,CLR,OVC,1.46,WeatherDisplay:10.37,2013-06-12 02:42:00,
2013-06-11 22:44:00,60.2,60.2,29.57,North,4,2.0,3.5,100,0.06,RA,OVC,1.46,WeatherDisplay:10.37,2013-06-12 02:44:00,
2013-06-11 22:45:00,60.2,60.2,29.57,North,4,1.7,3.5,100,0.06,RA,OVC,1.46,WeatherDisplay:10.37,2013-06-12 02:45:00,
2013-06-11 22:47:00,60.2,60.2,29.57,North,4,2.0,3.5,100,0.06,RA,OVC,1.46,WeatherDisplay:10.37,2013-06-12 02:47:00,
2013-06-11 22:48:00,60.2,60.2,29.57,North,4,1.4,2.3,100,0.05,RA,OVC,1.46,WeatherDisplay:10.37,2013-06-12 02:48:00,
2013-06-11 22:50:00,60.2,60.2,29.57,North,4,1.8,3.5,100,0.05,RA,OVC,1.46,WeatherDisplay:10.37,2013-06-12 02:50:00,
2013-06-11 22:52:00,60.2,60.2,29.57,North,4,2.0,3.5,100,0.05,RA,OVC,1.46,WeatherDisplay:10.37,2013-06-12 02:52:00,
2013-06-11 22:53:00,60.2,60.2,29.57,North,4,1.0,3.5,100,0.05,,OVC,1.46,WeatherDisplay:10.37,2013-06-12 02:53:00,
2013-06-11 22:55:00,60.2,60.2,29.57,North,4,1.9,3.5,100,0.06,RA,OVC,1.47,WeatherDisplay:10.37,2013-06-12 02:55:00,
2013-06-11 22:57:00,60.2,60.2,29.57,North,4,2.4,3.5,100,0.06,RA,OVC,1.47,WeatherDisplay:10.37,2013-06-12 02:57:00,
2013-06-11 22:58:00,60.2,60.2,29.57,North,4,1.2,3.5,100,0.06,RA,OVC,1.47,WeatherDisplay:10.37,2013-06-12 02:58:00,
2013-06-11 23:00:00,60.2,60.2,29.57,North,4,1.5,2.3,100,0.05,RA,OVC,1.47,WeatherDisplay:10.37,2013-06-12 03:00:00,
2013-06-11 23:02:00,60.2,60.2,29.57,North,4,1.6,3.5,100,0.05,RA,OVC,1.47,WeatherDisplay:10.37,2013-06-12 03:02:00,
2013-06-11 23:03:00,60.2,60.2,29.57,North,4,1.3,3.0,100,0.05,RA,OVC,1.47,WeatherDisplay:10.37,2013-06-12 03:03:00,
2013-06-11 23:05:00,60.2,60.2,29.57,North,4,1.7,3.5,100,0.05,,OVC,1.47,WeatherDisplay:10.37,2013-06-12 03:05:00,
2013-06-11 23:07:00,60.2,60.2,29.57,North,4,1.7,2.3,100,0.05,CLR,OVC,1.47,WeatherDisplay:10.37,2013-06-12 03:07:00,
2013-06-11 23:08:00,60.2,60.2,29.57,North,4,1.5,2.3,100,0.05,CLR,OVC,1.48,WeatherDisplay:10.37,2013-06-12 03:08:00,
2013-06-11 23:10:00,60.2,60.2,29.57,North,4,2.5,4.0,100,0.05,RA,OVC,1.48,WeatherDisplay:10.37,2013-06-12 03:10:00,
2013-06-11 23:11:00,60.2,60.2,29.57,North,4,1.8,3.5,100,0.05,RA,OVC,1.48,WeatherDisplay:10.37,2013-06-12 03:11:00,
2013-06-11 23:12:00,60.2,60.2,29.57,North,4,1.8,3.5,100,0.05,RA,OVC,1.48,WeatherDisplay:10.37,2013-06-12 03:12:00,
2013-06-11 23:13:00,60.2,60.2,29.57,North,4,2.1,3.5,100,0.05,RA,OVC,1.48,WeatherDisplay:10.37,2013-06-12 03:13:00,
2013-06-11 23:15:00,60.2,60.2,29.57,North,4,2.8,3.5,100,0.05,RA,OVC,1.48,WeatherDisplay:10.37,2013-06-12 03:15:00,
2013-06-11 23:16:00,60.2,60.2,29.57,North,4,2.0,3.5,100,0.05,RA,OVC,1.48,WeatherDisplay:10.37,2013-06-12 03:16:00,
2013-06-11 23:17:00,60.2,60.2,29.57,North,4,2.4,3.5,100,0.05,RA,OVC,1.48,WeatherDisplay:10.37,2013-06-12 03:17:00,
2013-06-11 23:18:00,60.2,60.2,29.57,North,4,2.2,3.5,100,0.05,,OVC,1.48,WeatherDisplay:10.37,2013-06-12 03:18:00,
2013-06-11 23:20:00,60.1,60.1,29.57,North,4,2.9,4.0,100,0.05,RA,OVC,1.49,WeatherDisplay:10.37,2013-06-12 03:20:00,
2013-06-11 23:21:00,60.1,60.1,29.57,North,4,2.9,3.5,100,0.05,RA,OVC,1.49,WeatherDisplay:10.37,2013-06-12 03:21:00,
2013-06-11 23:22:00,60.2,60.2,29.57,North,4,2.6,3.5,100,0.05,RA,OVC,1.49,WeatherDisplay:10.37,2013-06-12 03:22:00,
2013-06-11 23:23:00,60.2,60.2,29.57,North,4,4.5,5.0,100,0.05,RA,OVC,1.49,WeatherDisplay:10.37,2013-06-12 03:23:00,
2013-06-11 23:26:00,60.1,60.1,29.57,North,2,5.5,6.9,100,0.05,RA,OVC,1.49,WeatherDisplay:10.37,2013-06-12 03:26:00,
2013-06-11 23:27:00,60.1,60.1,29.57,North,2,4.0,6.9,100,0.05,RA,OVC,1.49,WeatherDisplay:10.37,2013-06-12 03:27:00,
2013-06-11 23:28:00,60.1,60.1,29.57,North,2,5.1,6.9,100,0.05,RA,OVC,1.49,WeatherDisplay:10.37,2013-06-12 03:28:00,
2013-06-11 23:29:00,60.0,60.0,29.57,North,2,4.3,5.8,100,0.05,RA,OVC,1.49,WeatherDisplay:10.37,2013-06-12 03:29:00,
2013-06-11 23:31:00,60.0,60.0,29.57,North,2,4.2,8.1,100,0.04,,OVC,1.49,WeatherDisplay:10.37,2013-06-12 03:31:00,
2013-06-11 23:32:00,60.0,60.0,29.57,North,2,4.7,7.0,100,0.04,,OVC,1.49,WeatherDisplay:10.37,2013-06-12 03:32:00,
2013-06-11 23:33:00,59.9,59.9,29.57,North,2,5.2,8.1,100,0.04,CLR,OVC,1.50,WeatherDisplay:10.37,2013-06-12 03:33:00,
2013-06-11 23:34:00,59.9,59.9,29.57,North,2,4.8,5.8,100,0.05,RA,OVC,1.50,WeatherDisplay:10.37,2013-06-12 03:34:00,
2013-06-11 23:36:00,59.8,59.8,29.57,North,2,5.5,8.1,100,0.05,RA,OVC,1.50,WeatherDisplay:10.37,2013-06-12 03:36:00,
2013-06-11 23:37:00,59.8,59.8,29.57,North,2,5.4,7.0,100,0.05,RA,OVC,1.50,WeatherDisplay:10.37,2013-06-12 03:37:00,
2013-06-11 23:38:00,59.7,59.7,29.57,North,2,5.7,9.2,100,0.05,RA,OVC,1.50,WeatherDisplay:10.37,2013-06-12 03:38:00,
2013-06-11 23:39:00,59.7,59.7,29.57,North,2,4.4,9.2,100,0.05,RA,OVC,1.50,WeatherDisplay:10.37,2013-06-12 03:39:00,
2013-06-11 23:41:00,59.7,59.7,29.57,North,2,5.2,8.1,100,0.05,RA,OVC,1.50,WeatherDisplay:10.37,2013-06-12 03:41:00,
2013-06-11 23:42:00,59.7,59.7,29.57,North,2,5.4,6.9,100,0.05,RA,OVC,1.50,WeatherDisplay:10.37,2013-06-12 03:42:00,
2013-06-11 23:43:00,59.6,59.6,29.57,North,2,5.0,6.9,100,0.04,RA,OVC,1.50,WeatherDisplay:10.37,2013-06-12 03:43:00,
2013-06-11 23:44:00,59.6,59.6,29.57,North,2,4.8,5.8,100,0.04,,OVC,1.50,WeatherDisplay:10.37,2013-06-12 03:44:00,
2013-06-11 23:46:00,59.6,59.6,29.58,North,2,3.3,5.8,100,0.05,RA,OVC,1.51,WeatherDisplay:10.37,2013-06-12 03:46:00,
2013-06-11 23:47:00,59.6,59.6,29.57,North,2,3.8,6.0,100,0.05,RA,OVC,1.51,WeatherDisplay:10.37,2013-06-12 03:47:00,
2013-06-11 23:48:00,59.6,59.6,29.57,North,2,5.6,8.0,100,0.05,RA,OVC,1.51,WeatherDisplay:10.37,2013-06-12 03:48:00,
2013-06-11 23:49:00,59.6,59.6,29.58,North,2,5.2,8.1,100,0.05,RA,OVC,1.51,WeatherDisplay:10.37,2013-06-12 03:49:00,
2013-06-11 23:52:00,59.6,59.6,29.58,North,3,5.0,9.2,100,0.05,RA,OVC,1.51,WeatherDisplay:10.37,2013-06-12 03:52:00,
2013-06-11 23:53:00,59.6,59.6,29.57,North,3,5.4,8.1,100,0.05,RA,OVC,1.51,WeatherDisplay:10.37,2013-06-12 03:53:00,
2013-06-11 23:54:00,59.6,59.6,29.58,North,3,4.3,8.1,100,0.05,RA,OVC,1.51,WeatherDisplay:10.37,2013-06-12 03:54:00,
2013-06-11 23:57:00,59.7,59.7,29.57,North,0,4.8,5.8,100,0.04,,OVC,1.51,WeatherDisplay:10.37,2013-06-12 03:57:00,
2013-06-11 23:58:00,59.7,59.7,29.57,North,0,6.0,7.0,100,0.04,CLR,OVC,1.51,WeatherDisplay:10.37,2013-06-12 03:58:00,
2013-06-11 23:59:00,59.7,59.7,29.58,North,0,5.5,8.1,100,0.04,CLR,OVC,1.52,WeatherDisplay:10.37,2013-06-12 03:59:00,